Wetterdaten: Montag, 24.09.2018
Datum Zeit Temp. Aussen Temp. o. S. +5cm Feuchte Auss Luftdruck Regen Sonnenschein Regendauer Solar Windben Empfang
24.09.2018 00:00 8,6 C 7,8 C 7,8 C 98 % 1021,4 hPa 0,0 l/m 0 min 0 min 0 W/m 6,4 km/h (2 Bft) 97,14 %
24.09.2018 00:02 8,6 C 7,8 C 7,8 C 98 % 1021,5 hPa 0,0 l/m 0 min 0 min 0 W/m 16,1 km/h (3 Bft) 97,22 %
24.09.2018 00:04 8,6 C 7,8 C 7,8 C 98 % 1021,5 hPa 0,0 l/m 0 min 0 min 0 W/m 0,0 km/h (0 Bft) 95,74 %
24.09.2018 00:07 8,6 C 7,8 C 7,8 C 98 % 1021,5 hPa 0,0 l/m 0 min 0 min 0 W/m 3,2 km/h (1 Bft) 95,74 %
24.09.2018 00:08 8,5 C 7,8 C 7,8 C 98 % 1021,5 hPa 0,0 l/m 0 min 0 min 0 W/m 3,2 km/h (1 Bft) 96,81 %
24.09.2018 00:10 8,5 C 7,8 C 7,8 C 98 % 1021,5 hPa 0,0 l/m 0 min 0 min 0 W/m 6,4 km/h (2 Bft) 95,74 %
24.09.2018 00:12 8,5 C 7,8 C 7,8 C 98 % 1021,7 hPa 0,0 l/m 0 min 0 min 0 W/m 6,4 km/h (2 Bft) 97,87 %
24.09.2018 00:14 8,5 C 7,8 C 7,8 C 98 % 1021,7 hPa 0,0 l/m 0 min 0 min 0 W/m 3,2 km/h (1 Bft) 95,74 %
24.09.2018 00:16 8,5 C 7,8 C 7,8 C 98 % 1021,7 hPa 0,0 l/m 0 min 0 min 0 W/m 6,4 km/h (2 Bft) 97,87 %
24.09.2018 00:18 8,5 C 7,2 C 7,8 C 98 % 1021,8 hPa 0,0 l/m 0 min 0 min 0 W/m 9,7 km/h (2 Bft) 97,87 %
24.09.2018 00:20 8,5 C 7,2 C 7,8 C 98 % 1021,8 hPa 0,0 l/m 0 min 0 min 0 W/m 3,2 km/h (1 Bft) 95,65 %
24.09.2018 00:22 8,4 C 7,2 C 7,8 C 98 % 1021,8 hPa 0,0 l/m 0 min 0 min 0 W/m 3,2 km/h (1 Bft) 97,87 %
24.09.2018 00:24 8,4 C 7,2 C 7,8 C 98 % 1021,9 hPa 0,0 l/m 0 min 0 min 0 W/m 6,4 km/h (2 Bft) 97,87 %
24.09.2018 00:26 8,4 C 7,2 C 7,8 C 98 % 1022,0 hPa 0,0 l/m 0 min 0 min 0 W/m 6,4 km/h (2 Bft) 97,87 %
24.09.2018 00:28 8,4 C 7,2 C 7,8 C 98 % 1022,0 hPa 0,0 l/m 0 min 0 min 0 W/m 0,0 km/h (0 Bft) 95,74 %
24.09.2018 00:30 8,4 C 7,2 C 7,8 C 98 % 1022,0 hPa 0,0 l/m 0 min 0 min 0 W/m 0,0 km/h (0 Bft) 95,74 %
24.09.2018 00:32 8,4 C 7,2 C 7,8 C 98 % 1022,0 hPa 0,0 l/m 0 min 0 min 0 W/m 0,0 km/h (0 Bft) 97,83 %
24.09.2018 00:34 8,4 C 7,2 C 7,8 C 98 % 1022,1 hPa 0,0 l/m 0 min 0 min 0 W/m 3,2 km/h (1 Bft) 97,87 %
24.09.2018 00:38 8,3 C 7,2 C 7,2 C 98 % 1022,2 hPa 0,0 l/m 0 min 0 min 0 W/m 3,2 km/h (1 Bft) 96,81 %
24.09.2018 00:40 8,3 C 7,2 C 7,2 C 98 % 1022,3 hPa 0,0 l/m 0 min 0 min 0 W/m 16,1 km/h (3 Bft) 95,74 %
24.09.2018 00:42 8,3 C 7,2 C 7,2 C 98 % 1022,4 hPa 0,0 l/m 0 min 0 min 0 W/m 6,4 km/h (2 Bft) 93,48 %
24.09.2018 00:44 8,2 C 7,2 C 7,2 C 98 % 1022,5 hPa 0,0 l/m 0 min 0 min 0 W/m 6,4 km/h (2 Bft) 95,74 %
24.09.2018 00:46 8,2 C 7,2 C 7,2 C 98 % 1022,5 hPa 0,0 l/m 0 min 0 min 0 W/m 3,2 km/h (1 Bft) 95,74 %
24.09.2018 00:48 8,2 C 7,2 C 7,2 C 98 % 1022,5 hPa 0,0 l/m 0 min 0 min 0 W/m 3,2 km/h (1 Bft) 97,87 %
24.09.2018 00:50 8,2 C 7,2 C 7,2 C 98 % 1022,6 hPa 0,0 l/m 0 min 0 min 0 W/m 6,4 km/h (2 Bft) 97,87 %
24.09.2018 00:52 8,2 C 7,2 C 7,2 C 98 % 1022,6 hPa 0,0 l/m 0 min 0 min 0 W/m 6,4 km/h (2 Bft) 95,74 %
24.09.2018 00:54 8,2 C 7,2 C 7,2 C 98 % 1022,6 hPa 0,0 l/m 0 min 0 min 0 W/m 3,2 km/h (1 Bft) 97,83 %
24.09.2018 00:56 8,1 C 7,2 C 7,2 C 98 % 1022,7 hPa 0,0 l/m 0 min 0 min 0 W/m 0,0 km/h (0 Bft) 97,87 %
24.09.2018 00:58 8,1 C 7,2 C 7,2 C 98 % 1022,7 hPa 0,0 l/m 0 min 0 min 0 W/m 3,2 km/h (1 Bft) 97,87 %
24.09.2018 01:00 8,1 C 7,2 C 7,2 C 98 % 1022,8 hPa 0,0 l/m 0 min 0 min 0 W/m 3,2 km/h (1 Bft) 95,74 %
24.09.2018 01:02 8,1 C 7,2 C 7,2 C 98 % 1022,8 hPa 0,0 l/m 0 min 0 min 0 W/m 6,4 km/h (2 Bft) 97,87 %
24.09.2018 01:04 8,1 C 7,2 C 7,2 C 98 % 1022,8 hPa 0,0 l/m 0 min 0 min 0 W/m 3,2 km/h (1 Bft) 97,87 %
24.09.2018 01:08 8,0 C 7,2 C 7,2 C 98 % 1022,8 hPa 0,0 l/m 0 min 0 min 0 W/m 0,0 km/h (0 Bft) 96,81 %
24.09.2018 01:10 8,0 C 7,2 C 7,2 C 98 % 1023,0 hPa 0,0 l/m 0 min 0 min 0 W/m 0,0 km/h (0 Bft) 97,87 %
24.09.2018 01:12 8,0 C 7,2 C 7,2 C 98 % 1022,9 hPa 0,0 l/m 0 min 0 min 0 W/m 0,0 km/h (0 Bft) 97,87 %
24.09.2018 01:14 8,0 C 7,2 C 7,2 C 98 % 1022,9 hPa 0,0 l/m 0 min 0 min 0 W/m 0,0 km/h (0 Bft) 97,87 %
24.09.2018 01:16 8,0 C 7,2 C 7,2 C 98 % 1023,0 hPa 0,0 l/m 0 min 0 min 0 W/m 0,0 km/h (0 Bft) 95,74 %
24.09.2018 01:18 7,9 C 7,2 C 7,2 C 98 % 1023,0 hPa 0,0 l/m 0 min 0 min 0 W/m 0,0 km/h (0 Bft) 97,83 %
24.09.2018 01:20 7,9 C 7,2 C 7,2 C 98 % 1023,0 hPa 0,0 l/m 0 min 0 min 0 W/m 0,0 km/h (0 Bft) 97,87 %
24.09.2018 01:22 7,9 C 7,2 C 7,2 C 98 % 1023,1 hPa 0,0 l/m 0 min 0 min 0 W/m 0,0 km/h (0 Bft) 97,92 %
24.09.2018 01:24 7,9 C 7,2 C 7,2 C 98 % 1023,2 hPa 0,0 l/m 0 min 0 min 0 W/m 0,0 km/h (0 Bft) 97,87 %
24.09.2018 01:26 7,9 C 7,2 C 7,2 C 98 % 1023,2 hPa 0,0 l/m 0 min 0 min 0 W/m 0,0 km/h (0 Bft) 95,65 %
24.09.2018 01:28 7,9 C 7,2 C 7,2 C 98 % 1023,1 hPa 0,0 l/m 0 min 0 min 0 W/m 0,0 km/h (0 Bft) 97,87 %
24.09.2018 01:30 7,9 C 7,2 C 7,2 C 98 % 1023,2 hPa 0,0 l/m 0 min 0 min 0 W/m 0,0 km/h (0 Bft) 100,00 %
24.09.2018 01:32 7,9 C 7,2 C 7,2 C 98 % 1023,2 hPa 0,0 l/m 0 min 0 min 0 W/m 0,0 km/h (0 Bft) 100,00 %
24.09.2018 01:34 7,9 C 7,2 C 7,2 C 98 % 1023,2 hPa 0,0 l/m 0 min 0 min 0 W/m 0,0 km/h (0 Bft) 100,00 %
24.09.2018 01:38 7,9 C 7,2 C 7,2 C 98 % 1023,3 hPa 0,0 l/m 0 min 0 min 0 W/m 0,0 km/h (0 Bft) 98,92 %
24.09.2018 01:40 7,9 C 7,2 C 7,2 C 98 % 1023,3 hPa 0,0 l/m 0 min 0 min 0 W/m 0,0 km/h (0 Bft) 100,00 %
24.09.2018 01:42 7,9 C 7,2 C 7,2 C 98 % 1023,4 hPa 0,0 l/m 0 min 0 min 0 W/m 0,0 km/h (0 Bft) 97,87 %
24.09.2018 01:45 7,9 C 7,2 C 7,2 C 98 % 1023,4 hPa 0,0 l/m 0 min 0 min 0 W/m 0,0 km/h (0 Bft) 97,14 %
24.09.2018 01:46 7,9 C 7,2 C 7,2 C 98 % 1023,5 hPa 0,0 l/m 0 min 0 min 0 W/m 0,0 km/h (0 Bft) 100,00 %
24.09.2018 01:48 7,9 C 7,2 C 7,2 C 98 % 1023,5 hPa 0,0 l/m 0 min 0 min 0 W/m 0,0 km/h (0 Bft) 100,00 %
24.09.2018 01:50 7,9 C 7,2 C 7,2 C 98 % 1023,6 hPa 0,0 l/m 0 min 0 min 0 W/m 0,0 km/h (0 Bft) 100,00 %
24.09.2018 01:52 7,9 C 7,2 C 7,2 C 98 % 1023,7 hPa 0,0 l/m 0 min 0 min 0 W/m 0,0 km/h (0 Bft) 100,00 %
24.09.2018 01:54 7,8 C 7,2 C 7,2 C 98 % 1023,8 hPa 0,0 l/m 0 min 0 min 0 W/m 0,0 km/h (0 Bft) 100,00 %
24.09.2018 01:56 7,8 C 6,7 C 7,2 C 98 % 1023,8 hPa 0,0 l/m 0 min 0 min 0 W/m 0,0 km/h (0 Bft) 100,00 %
24.09.2018 01:58 7,8 C 6,7 C 7,2 C 98 % 1023,8 hPa 0,0 l/m 0 min 0 min 0 W/m 0,0 km/h (0 Bft) 100,00 %
24.09.2018 02:00 7,8 C 7,2 C 7,2 C 98 % 1023,8 hPa 0,0 l/m 0 min 0 min 0 W/m 0,0 km/h (0 Bft) 100,00 %
24.09.2018 02:02 7,8 C 7,2 C 7,2 C 98 % 1023,9 hPa 0,0 l/m 0 min 0 min 0 W/m 0,0 km/h (0 Bft) 97,87 %
24.09.2018 02:04 7,8 C 6,7 C 7,2 C 98 % 1024,0 hPa 0,0 l/m 0 min 0 min 0 W/m 0,0 km/h (0 Bft) 97,87 %
24.09.2018 02:06 7,8 C 6,7 C 7,2 C 98 % 1024,0 hPa 0,0 l/m 0 min 0 min 0 W/m 0,0 km/h (0 Bft) 100,00 %
24.09.2018 02:08 7,8 C 6,7 C 7,2 C 98 % 1024,0 hPa 0,0 l/m 0 min 0 min 0 W/m 0,0 km/h (0 Bft) 100,00 %
24.09.2018 02:10 7,8 C 6,7 C 7,2 C 98 % 1024,1 hPa 0,0 l/m 0 min 0 min 0 W/m 0,0 km/h (0 Bft) 100,00 %
24.09.2018 02:12 7,8 C 6,7 C 7,2 C 98 % 1024,1 hPa 0,0 l/m 0 min 0 min 0 W/m 0,0 km/h (0 Bft) 100,00 %
24.09.2018 02:14 7,8 C 6,7 C 7,2 C 98 % 1024,1 hPa 0,0 l/m 0 min 0 min 0 W/m 0,0 km/h (0 Bft) 100,00 %
24.09.2018 02:16 7,8 C 6,7 C 7,2 C 98 % 1024,1 hPa 0,0 l/m 0 min 0 min 0 W/m 0,0 km/h (0 Bft) 100,00 %
24.09.2018 02:18 7,7 C 6,7 C 7,2 C 98 % 1024,1 hPa 0,0 l/m 0 min 0 min 0 W/m 0,0 km/h (0 Bft) 100,00 %
24.09.2018 02:20 7,7 C 6,7 C 7,2 C 98 % 1024,1 hPa 0,0 l/m 0 min 0 min 0 W/m 0,0 km/h (0 Bft) 100,00 %
24.09.2018 02:22 7,7 C 6,7 C 7,2 C 98 % 1024,2 hPa 0,0 l/m 0 min 0 min 0 W/m 0,0 km/h (0 Bft) 97,83 %
24.09.2018 02:24 7,7 C 6,7 C 7,2 C 98 % 1024,1 hPa 0,0 l/m 0 min 0 min 0 W/m 0,0 km/h (0 Bft) 100,00 %
24.09.2018 02:26 7,7 C 6,7 C 7,2 C 98 % 1024,1 hPa 0,0 l/m 0 min 0 min 0 W/m 0,0 km/h (0 Bft) 97,87 %
24.09.2018 02:28 7,7 C 6,7 C 7,2 C 98 % 1024,2 hPa 0,0 l/m 0 min 0 min 0 W/m 0,0 km/h (0 Bft) 95,74 %
24.09.2018 02:30 7,7 C 6,7 C 7,2 C 98 % 1024,2 hPa 0,0 l/m 0 min 0 min 0 W/m 0,0 km/h (0 Bft) 100,00 %
24.09.2018 02:32 7,7 C 6,7 C 7,2 C 98 % 1024,3 hPa 0,0 l/m 0 min 0 min 0 W/m 0,0 km/h (0 Bft) 100,00 %
24.09.2018 02:34 7,6 C 6,7 C 7,2 C 98 % 1024,3 hPa 0,0 l/m 0 min 0 min 0 W/m 0,0 km/h (0 Bft) 97,83 %
24.09.2018 02:36 7,6 C 6,7 C 7,2 C 98 % 1024,3 hPa 0,0 l/m 0 min 0 min 0 W/m 0,0 km/h (0 Bft) 97,87 %
24.09.2018 02:38 7,6 C 6,7 C 7,2 C 98 % 1024,4 hPa 0,0 l/m 0 min 0 min 0 W/m 0,0 km/h (0 Bft) 97,87 %
24.09.2018 02:40 7,6 C 6,7 C 7,2 C 98 % 1024,5 hPa 0,0 l/m 0 min 0 min 0 W/m 0,0 km/h (0 Bft) 100,00 %
24.09.2018 02:42 7,6 C 6,7 C 7,2 C 98 % 1024,6 hPa 0,0 l/m 0 min 0 min 0 W/m 0,0 km/h (0 Bft) 100,00 %
24.09.2018 02:44 7,6 C 6,7 C 7,2 C 98 % 1024,6 hPa 0,0 l/m 0 min 0 min 0 W/m 0,0 km/h (0 Bft) 100,00 %
24.09.2018 02:46 7,6 C 6,7 C 7,2 C 98 % 1024,7 hPa 0,0 l/m 0 min 0 min 0 W/m 0,0 km/h (0 Bft) 97,83 %
24.09.2018 02:48 7,6 C 6,7 C 7,2 C 98 % 1024,8 hPa 0,0 l/m 0 min 0 min 0 W/m 0,0 km/h (0 Bft) 97,87 %
24.09.2018 02:50 7,6 C 6,7 C 7,2 C 98 % 1024,8 hPa 0,0 l/m 0 min 0 min 0 W/m 0,0 km/h (0 Bft) 97,87 %
24.09.2018 02:52 7,6 C 6,7 C 7,2 C 98 % 1024,8 hPa 0,0 l/m 0 min 0 min 0 W/m 0,0 km/h (0 Bft) 97,87 %
24.09.2018 02:54 7,6 C 6,7 C 7,2 C 98 % 1024,9 hPa 0,0 l/m 0 min 0 min 0 W/m 0,0 km/h (0 Bft) 97,87 %
24.09.2018 02:56 7,6 C 6,7 C 7,2 C 98 % 1024,9 hPa 0,0 l/m 0 min 0 min 0 W/m 0,0 km/h (0 Bft) 97,87 %
24.09.2018 02:58 7,6 C 6,7 C 7,2 C 98 % 1024,9 hPa 0,0 l/m 0 min 0 min 0 W/m 0,0 km/h (0 Bft) 93,88 %
24.09.2018 03:00 7,6 C 6,7 C 7,2 C 98 % 1024,9 hPa 0,0 l/m 0 min 0 min 0 W/m 0,0 km/h (0 Bft) 95,74 %
24.09.2018 03:02 7,6 C 6,7 C 7,2 C 98 % 1025,0 hPa 0,0 l/m 0 min 0 min 0 W/m 0,0 km/h (0 Bft) 93,62 %
24.09.2018 03:04 7,6 C 6,7 C 7,2 C 98 % 1025,0 hPa 0,0 l/m 0 min 0 min 0 W/m 0,0 km/h (0 Bft) 95,74 %
24.09.2018 03:06 7,6 C 6,7 C 7,2 C 98 % 1025,0 hPa 0,0 l/m 0 min 0 min 0 W/m 0,0 km/h (0 Bft) 95,74 %
24.09.2018 03:08 7,6 C 6,7 C 7,2 C 98 % 1025,1 hPa 0,0 l/m 0 min 0 min 0 W/m 0,0 km/h (0 Bft) 95,65 %
24.09.2018 03:10 7,5 C 6,7 C 7,2 C 98 % 1025,2 hPa 0,0 l/m 0 min 0 min 0 W/m 0,0 km/h (0 Bft) 97,87 %
24.09.2018 03:12 7,5 C 6,7 C 7,2 C 98 % 1025,2 hPa 0,0 l/m 0 min 0 min 0 W/m 6,4 km/h (2 Bft) 95,74 %
24.09.2018 03:14 7,5 C 6,7 C 7,2 C 98 % 1025,2 hPa 0,0 l/m 0 min 0 min 0 W/m 6,4 km/h (2 Bft) 95,74 %
24.09.2018 03:16 7,5 C 6,7 C 7,2 C 98 % 1025,2 hPa 0,0 l/m 0 min 0 min 0 W/m 3,2 km/h (1 Bft) 95,74 %
24.09.2018 03:18 7,5 C 6,7 C 7,2 C 98 % 1025,2 hPa 0,0 l/m 0 min 0 min 0 W/m 0,0 km/h (0 Bft) 95,74 %
24.09.2018 03:20 7,5 C 6,7 C 7,2 C 98 % 1025,3 hPa 0,0 l/m 0 min 0 min 0 W/m 0,0 km/h (0 Bft) 95,65 %
24.09.2018 03:22 7,5 C 6,7 C 7,2 C 98 % 1025,3 hPa 0,0 l/m 0 min 0 min 0 W/m 0,0 km/h (0 Bft) 95,74 %
24.09.2018 03:24 7,4 C 6,7 C 7,2 C 98 % 1025,4 hPa 0,0 l/m 0 min 0 min 0 W/m 0,0 km/h (0 Bft) 95,74 %
24.09.2018 03:26 7,4 C 6,7 C 7,2 C 98 % 1025,5 hPa 0,0 l/m 0 min 0 min 0 W/m 0,0 km/h (0 Bft) 93,62 %
24.09.2018 03:28 7,4 C 6,7 C 7,2 C 98 % 1025,5 hPa 0,0 l/m 0 min 0 min 0 W/m 0,0 km/h (0 Bft) 93,62 %
24.09.2018 03:30 7,4 C 6,7 C 7,2 C 98 % 1025,5 hPa 0,0 l/m 0 min 0 min 0 W/m 0,0 km/h (0 Bft) 100,00 %
24.09.2018 03:32 7,4 C 6,7 C 7,2 C 98 % 1025,6 hPa 0,0 l/m 0 min 0 min 0 W/m 0,0 km/h (0 Bft) 95,65 %
24.09.2018 03:34 7,4 C 6,7 C 7,2 C 98 % 1025,7 hPa 0,0 l/m 0 min 0 min 0 W/m 0,0 km/h (0 Bft) 93,62 %
24.09.2018 03:36 7,4 C 6,7 C 7,2 C 98 % 1025,7 hPa 0,0 l/m 0 min 0 min 0 W/m 0,0 km/h (0 Bft) 100,00 %
24.09.2018 03:38 7,4 C 6,7 C 7,2 C 98 % 1025,7 hPa 0,0 l/m 0 min 0 min 0 W/m 0,0 km/h (0 Bft) 95,74 %
24.09.2018 03:40 7,3 C 6,7 C 7,2 C 98 % 1025,7 hPa 0,0 l/m 0 min 0 min 0 W/m 0,0 km/h (0 Bft) 93,62 %
24.09.2018 03:42 7,3 C 6,7 C 6,7 C 98 % 1025,8 hPa 0,0 l/m 0 min 0 min 0 W/m 0,0 km/h (0 Bft) 96,61 %
24.09.2018 03:44 7,3 C 6,7 C 6,7 C 98 % 1025,7 hPa 0,0 l/m 0 min 0 min 0 W/m 0,0 km/h (0 Bft) 95,65 %
24.09.2018 03:46 7,3 C 6,7 C 6,7 C 98 % 1025,8 hPa 0,0 l/m 0 min 0 min 0 W/m 0,0 km/h (0 Bft) 94,29 %
24.09.2018 03:50 7,3 C 6,1 C 6,7 C 98 % 1025,8 hPa 0,0 l/m 0 min 0 min 0 W/m 0,0 km/h (0 Bft) 100,00 %
24.09.2018 03:52 7,2 C 6,1 C 6,7 C 98 % 1025,9 hPa 0,0 l/m 0 min 0 min 0 W/m 0,0 km/h (0 Bft) 97,87 %
24.09.2018 03:54 7,2 C 6,7 C 6,7 C 98 % 1025,9 hPa 0,0 l/m 0 min 0 min 0 W/m 0,0 km/h (0 Bft) 95,74 %
24.09.2018 03:56 7,2 C 6,1 C 7,2 C 98 % 1025,9 hPa 0,0 l/m 0 min 0 min 0 W/m 0,0 km/h (0 Bft) 97,87 %
24.09.2018 03:58 7,2 C 6,7 C 7,2 C 98 % 1025,9 hPa 0,0 l/m 0 min 0 min 0 W/m 0,0 km/h (0 Bft) 95,74 %
24.09.2018 04:00 7,2 C 6,1 C 7,2 C 98 % 1025,9 hPa 0,0 l/m 0 min 0 min 0 W/m 0,0 km/h (0 Bft) 95,65 %
24.09.2018 04:02 7,2 C 6,7 C 7,2 C 98 % 1025,9 hPa 0,0 l/m 0 min 0 min 0 W/m 0,0 km/h (0 Bft) 100,00 %
24.09.2018 04:04 7,2 C 6,1 C 7,2 C 98 % 1026,0 hPa 0,0 l/m 0 min 0 min 0 W/m 0,0 km/h (0 Bft) 97,87 %
24.09.2018 04:08 7,2 C 6,1 C 6,7 C 98 % 1026,0 hPa 0,0 l/m 0 min 0 min 0 W/m 9,7 km/h (2 Bft) 95,79 %
24.09.2018 04:10 7,2 C 6,1 C 6,7 C 98 % 1026,0 hPa 0,0 l/m 0 min 0 min 0 W/m 6,4 km/h (2 Bft) 95,74 %
24.09.2018 04:12 7,2 C 6,1 C 6,7 C 98 % 1026,0 hPa 0,0 l/m 0 min 0 min 0 W/m 6,4 km/h (2 Bft) 95,65 %
24.09.2018 04:14 7,1 C 6,1 C 6,7 C 98 % 1026,0 hPa 0,0 l/m 0 min 0 min 0 W/m 3,2 km/h (1 Bft) 95,74 %
24.09.2018 04:16 7,1 C 6,1 C 6,7 C 98 % 1026,0 hPa 0,0 l/m 0 min 0 min 0 W/m 0,0 km/h (0 Bft) 97,62 %
24.09.2018 04:18 7,1 C 6,1 C 6,7 C 98 % 1026,0 hPa 0,0 l/m 0 min 0 min 0 W/m 0,0 km/h (0 Bft) 95,74 %
24.09.2018 04:20 7,1 C 6,1 C 6,7 C 98 % 1026,0 hPa 0,0 l/m 0 min 0 min 0 W/m 0,0 km/h (0 Bft) 100,00 %
24.09.2018 04:22 7,1 C 6,1 C 6,7 C 98 % 1026,0 hPa 0,0 l/m 0 min 0 min 0 W/m 0,0 km/h (0 Bft) 100,00 %
24.09.2018 04:24 7,1 C 6,1 C 6,7 C 98 % 1025,9 hPa 0,0 l/m 0 min 0 min 0 W/m 0,0 km/h (0 Bft) 98,18 %
24.09.2018 04:26 7,1 C 6,1 C 6,7 C 98 % 1025,9 hPa 0,0 l/m 0 min 0 min 0 W/m 0,0 km/h (0 Bft) 97,87 %
24.09.2018 04:28 7,1 C 6,1 C 6,7 C 98 % 1026,0 hPa 0,0 l/m 0 min 0 min 0 W/m 0,0 km/h (0 Bft) 100,00 %
24.09.2018 04:30 7,1 C 6,1 C 6,7 C 98 % 1026,1 hPa 0,0 l/m 0 min 0 min 0 W/m 0,0 km/h (0 Bft) 100,00 %
24.09.2018 04:32 7,1 C 6,1 C 6,7 C 98 % 1026,0 hPa 0,0 l/m 0 min 0 min 0 W/m 0,0 km/h (0 Bft) 97,87 %
24.09.2018 04:34 7,1 C 6,1 C 6,7 C 98 % 1026,2 hPa 0,0 l/m 0 min 0 min 0 W/m 0,0 km/h (0 Bft) 100,00 %
24.09.2018 04:38 7,0 C 6,1 C 6,7 C 98 % 1026,2 hPa 0,0 l/m 0 min 0 min 0 W/m 3,2 km/h (1 Bft) 98,94 %
24.09.2018 04:40 7,0 C 6,1 C 6,7 C 98 % 1026,3 hPa 0,0 l/m 0 min 0 min 0 W/m 0,0 km/h (0 Bft) 100,00 %
24.09.2018 04:42 7,0 C 6,1 C 6,7 C 98 % 1026,2 hPa 0,0 l/m 0 min 0 min 0 W/m 6,4 km/h (2 Bft) 100,00 %
24.09.2018 04:44 6,9 C 6,1 C 6,7 C 98 % 1026,3 hPa 0,0 l/m 0 min 0 min 0 W/m 6,4 km/h (2 Bft) 100,00 %
24.09.2018 04:46 6,9 C 6,1 C 6,7 C 98 % 1026,3 hPa 0,0 l/m 0 min 0 min 0 W/m 3,2 km/h (1 Bft) 100,00 %
24.09.2018 04:48 6,9 C 6,1 C 6,7 C 98 % 1026,3 hPa 0,0 l/m 0 min 0 min 0 W/m 3,2 km/h (1 Bft) 100,00 %
24.09.2018 04:50 6,9 C 6,1 C 6,7 C 98 % 1026,3 hPa 0,0 l/m 0 min 0 min 0 W/m 3,2 km/h (1 Bft) 97,87 %
24.09.2018 04:52 6,9 C 6,1 C 6,7 C 98 % 1026,3 hPa 0,0 l/m 0 min 0 min 0 W/m 0,0 km/h (0 Bft) 100,00 %
24.09.2018 04:54 6,9 C 6,1 C 6,7 C 98 % 1026,4 hPa 0,0 l/m 0 min 0 min 0 W/m 6,4 km/h (2 Bft) 100,00 %
24.09.2018 04:56 6,9 C 6,1 C 6,7 C 98 % 1026,4 hPa 0,0 l/m 0 min 0 min 0 W/m 3,2 km/h (1 Bft) 100,00 %
24.09.2018 04:58 6,9 C 6,1 C 6,7 C 98 % 1026,4 hPa 0,0 l/m 0 min 0 min 0 W/m 6,4 km/h (2 Bft) 100,00 %
24.09.2018 05:00 6,9 C 6,1 C 6,7 C 98 % 1026,5 hPa 0,0 l/m 0 min 0 min 0 W/m 6,4 km/h (2 Bft) 100,00 %
24.09.2018 05:02 6,9 C 6,1 C 6,7 C 98 % 1026,5 hPa 0,0 l/m 0 min 0 min 0 W/m 3,2 km/h (1 Bft) 100,00 %
24.09.2018 05:04 6,8 C 6,1 C 6,7 C 98 % 1026,6 hPa 0,0 l/m 0 min 0 min 0 W/m 3,2 km/h (1 Bft) 100,00 %
24.09.2018 05:08 6,8 C 6,1 C 6,7 C 98 % 1026,7 hPa 0,0 l/m 0 min 0 min 0 W/m 3,2 km/h (1 Bft) 98,94 %
24.09.2018 05:10 6,8 C 6,1 C 6,7 C 98 % 1026,8 hPa 0,0 l/m 0 min 0 min 0 W/m 3,2 km/h (1 Bft) 100,00 %
24.09.2018 05:12 6,8 C 6,1 C 6,7 C 98 % 1026,8 hPa 0,0 l/m 0 min 0 min 0 W/m 3,2 km/h (1 Bft) 100,00 %
24.09.2018 05:14 6,8 C 6,1 C 6,7 C 98 % 1026,8 hPa 0,0 l/m 0 min 0 min 0 W/m 3,2 km/h (1 Bft) 97,87 %
24.09.2018 05:16 6,8 C 6,1 C 6,7 C 98 % 1026,7 hPa 0,0 l/m 0 min 0 min 0 W/m 3,2 km/h (1 Bft) 100,00 %
24.09.2018 05:18 6,8 C 6,1 C 6,7 C 98 % 1026,7 hPa 0,0 l/m 0 min 0 min 0 W/m 6,4 km/h (2 Bft) 100,00 %
24.09.2018 05:20 6,7 C 6,1 C 6,7 C 98 % 1026,7 hPa 0,0 l/m 0 min 0 min 0 W/m 6,4 km/h (2 Bft) 97,87 %
24.09.2018 05:22 6,7 C 6,1 C 6,7 C 98 % 1026,7 hPa 0,0 l/m 0 min 0 min 0 W/m 3,2 km/h (1 Bft) 97,83 %
24.09.2018 05:24 6,7 C 6,1 C 6,7 C 98 % 1026,8 hPa 0,0 l/m 0 min 0 min 0 W/m 3,2 km/h (1 Bft) 100,00 %
24.09.2018 05:26 6,7 C 6,1 C 6,7 C 98 % 1026,8 hPa 0,0 l/m 0 min 0 min 0 W/m 9,7 km/h (2 Bft) 95,74 %
24.09.2018 05:28 6,7 C 6,1 C 6,7 C 98 % 1026,9 hPa 0,0 l/m 0 min 0 min 0 W/m 3,2 km/h (1 Bft) 97,87 %
24.09.2018 05:30 6,7 C 6,1 C 6,7 C 98 % 1026,9 hPa 0,0 l/m 0 min 0 min 0 W/m 0,0 km/h (0 Bft) 97,87 %
24.09.2018 05:32 6,7 C 6,1 C 6,7 C 98 % 1026,9 hPa 0,0 l/m 0 min 0 min 0 W/m 3,2 km/h (1 Bft) 97,87 %
24.09.2018 05:34 6,7 C 6,1 C 6,7 C 98 % 1027,0 hPa 0,0 l/m 0 min 0 min 0 W/m 3,2 km/h (1 Bft) 97,83 %
24.09.2018 05:35 6,7 C 6,1 C 6,7 C 98 % 1027,0 hPa 0,0 l/m 0 min 0 min 0 W/m 9,7 km/h (2 Bft) 100,00 %
24.09.2018 05:40 6,7 C 6,1 C 6,7 C 98 % 1027,0 hPa 0,0 l/m 0 min 0 min 0 W/m 6,4 km/h (2 Bft) 95,56 %
24.09.2018 05:42 6,7 C 6,1 C 6,7 C 98 % 1027,1 hPa 0,0 l/m 0 min 0 min 0 W/m 6,4 km/h (2 Bft) 100,00 %
24.09.2018 05:44 6,7 C 6,1 C 6,7 C 98 % 1027,0 hPa 0,0 l/m 0 min 0 min 0 W/m 6,4 km/h (2 Bft) 97,87 %
24.09.2018 05:46 6,7 C 6,1 C 6,7 C 98 % 1027,0 hPa 0,0 l/m 0 min 0 min 0 W/m 3,2 km/h (1 Bft) 100,00 %
24.09.2018 05:48 6,7 C 6,1 C 6,7 C 98 % 1027,0 hPa 0,0 l/m 0 min 0 min 0 W/m 3,2 km/h (1 Bft) 97,83 %
24.09.2018 05:50 6,7 C 6,1 C 6,7 C 98 % 1027,2 hPa 0,0 l/m 0 min 0 min 0 W/m 9,7 km/h (2 Bft) 97,87 %
24.09.2018 05:52 6,7 C 6,1 C 6,7 C 98 % 1027,3 hPa 0,0 l/m 0 min 0 min 0 W/m 0,0 km/h (0 Bft) 97,87 %
24.09.2018 05:54 6,7 C 6,1 C 6,7 C 98 % 1027,3 hPa 0,0 l/m 0 min 0 min 0 W/m 0,0 km/h (0 Bft) 96,00 %
24.09.2018 05:56 6,7 C 6,1 C 6,7 C 98 % 1027,4 hPa 0,0 l/m 0 min 0 min 0 W/m 0,0 km/h (0 Bft) 97,87 %
24.09.2018 05:58 6,6 C 6,1 C 6,7 C 98 % 1027,3 hPa 0,0 l/m 0 min 0 min 0 W/m 0,0 km/h (0 Bft) 97,87 %
24.09.2018 06:00 6,6 C 6,1 C 6,7 C 98 % 1027,3 hPa 0,0 l/m 0 min 0 min 0 W/m 3,2 km/h (1 Bft) 97,83 %
24.09.2018 06:02 6,6 C 6,1 C 6,7 C 98 % 1027,3 hPa 0,0 l/m 0 min 0 min 0 W/m 3,2 km/h (1 Bft) 97,87 %
24.09.2018 06:04 6,6 C 6,1 C 6,7 C 98 % 1027,3 hPa 0,0 l/m 0 min 0 min 0 W/m 0,0 km/h (0 Bft) 97,87 %
24.09.2018 06:08 6,6 C 5,6 C 6,7 C 98 % 1027,5 hPa 0,0 l/m 0 min 0 min 0 W/m 3,2 km/h (1 Bft) 97,87 %
24.09.2018 06:10 6,6 C 5,6 C 6,7 C 98 % 1027,4 hPa 0,0 l/m 0 min 0 min 0 W/m 6,4 km/h (2 Bft) 97,87 %
24.09.2018 06:12 6,6 C 5,6 C 6,1 C 98 % 1027,4 hPa 0,0 l/m 0 min 0 min 0 W/m 3,2 km/h (1 Bft) 95,65 %
24.09.2018 06:14 6,6 C 5,6 C 6,1 C 98 % 1027,5 hPa 0,0 l/m 0 min 0 min 0 W/m 6,4 km/h (2 Bft) 100,00 %
24.09.2018 06:16 6,6 C 5,6 C 6,7 C 98 % 1027,5 hPa 0,0 l/m 0 min 0 min 0 W/m 3,2 km/h (1 Bft) 100,00 %
24.09.2018 06:18 6,6 C 6,1 C 6,7 C 98 % 1027,5 hPa 0,0 l/m 0 min 0 min 0 W/m 3,2 km/h (1 Bft) 100,00 %
24.09.2018 06:20 6,6 C 5,6 C 6,7 C 98 % 1027,5 hPa 0,0 l/m 0 min 0 min 0 W/m 3,2 km/h (1 Bft) 97,87 %
24.09.2018 06:22 6,6 C 6,1 C 6,7 C 98 % 1027,5 hPa 0,0 l/m 0 min 0 min 0 W/m 6,4 km/h (2 Bft) 98,04 %
24.09.2018 06:24 6,6 C 5,6 C 6,7 C 98 % 1027,6 hPa 0,0 l/m 0 min 0 min 0 W/m 3,2 km/h (1 Bft) 97,14 %
24.09.2018 06:26 6,6 C 5,6 C 6,7 C 98 % 1027,6 hPa 0,0 l/m 0 min 0 min 0 W/m 9,7 km/h (2 Bft) 97,87 %
24.09.2018 06:28 6,6 C 5,6 C 6,7 C 98 % 1027,6 hPa 0,0 l/m 0 min 0 min 0 W/m 3,2 km/h (1 Bft) 97,87 %
24.09.2018 06:30 6,5 C 5,6 C 6,7 C 98 % 1027,7 hPa 0,0 l/m 0 min 0 min 0 W/m 3,2 km/h (1 Bft) 95,65 %
24.09.2018 06:32 6,5 C 5,6 C 6,7 C 98 % 1027,7 hPa 0,0 l/m 0 min 0 min 0 W/m 3,2 km/h (1 Bft) 97,87 %
24.09.2018 06:34 6,5 C 5,6 C 6,7 C 98 % 1027,7 hPa 0,0 l/m 0 min 0 min 0 W/m 3,2 km/h (1 Bft) 97,87 %
24.09.2018 06:38 6,5 C 5,6 C 6,1 C 98 % 1027,8 hPa 0,0 l/m 0 min 0 min 0 W/m 0,0 km/h (0 Bft) 97,87 %
24.09.2018 06:40 6,5 C 5,6 C 6,1 C 98 % 1027,7 hPa 0,0 l/m 0 min 0 min 0 W/m 0,0 km/h (0 Bft) 97,83 %
24.09.2018 06:42 6,5 C 5,6 C 6,1 C 98 % 1027,8 hPa 0,0 l/m 0 min 0 min 0 W/m 3,2 km/h (1 Bft) 97,87 %
24.09.2018 06:44 6,5 C 5,6 C 6,1 C 98 % 1027,8 hPa 0,0 l/m 0 min 0 min 0 W/m 3,2 km/h (1 Bft) 97,87 %
24.09.2018 06:46 6,5 C 5,6 C 6,1 C 98 % 1027,9 hPa 0,0 l/m 0 min 0 min 0 W/m 3,2 km/h (1 Bft) 95,92 %
24.09.2018 06:48 6,5 C 5,6 C 6,1 C 98 % 1027,9 hPa 0,0 l/m 0 min 0 min 0 W/m 0,0 km/h (0 Bft) 97,87 %
24.09.2018 06:50 6,4 C 5,6 C 6,1 C 98 % 1027,9 hPa 0,0 l/m 0 min 0 min 0 W/m 3,2 km/h (1 Bft) 97,87 %
24.09.2018 06:52 6,4 C 5,6 C 6,1 C 98 % 1028,0 hPa 0,0 l/m 0 min 0 min 0 W/m 0,0 km/h (0 Bft) 97,83 %
24.09.2018 06:54 6,4 C 5,6 C 6,1 C 98 % 1028,0 hPa 0,0 l/m 0 min 0 min 0 W/m 0,0 km/h (0 Bft) 97,87 %
24.09.2018 06:56 6,4 C 5,6 C 6,1 C 98 % 1028,1 hPa 0,0 l/m 0 min 0 min 0 W/m 3,2 km/h (1 Bft) 97,87 %
24.09.2018 06:58 6,4 C 5,6 C 6,1 C 98 % 1028,1 hPa 0,0 l/m 0 min 0 min 0 W/m 3,2 km/h (1 Bft) 97,87 %
24.09.2018 07:00 6,4 C 5,6 C 6,1 C 98 % 1028,1 hPa 0,0 l/m 0 min 0 min 0 W/m 3,2 km/h (1 Bft) 97,87 %
24.09.2018 07:02 6,4 C 5,6 C 6,1 C 98 % 1028,1 hPa 0,0 l/m 0 min 0 min 0 W/m 0,0 km/h (0 Bft) 95,74 %
24.09.2018 07:04 6,4 C 5,6 C 6,1 C 98 % 1028,1 hPa 0,0 l/m 0 min 0 min 0 W/m 3,2 km/h (1 Bft) 95,65 %
24.09.2018 07:08 6,4 C 5,6 C 6,1 C 98 % 1028,2 hPa 0,0 l/m 0 min 0 min 0 W/m 3,2 km/h (1 Bft) 96,04 %
24.09.2018 07:10 6,4 C 5,6 C 6,1 C 98 % 1028,2 hPa 0,0 l/m 0 min 0 min 0 W/m 3,2 km/h (1 Bft) 97,83 %
24.09.2018 07:12 6,4 C 5,6 C 6,1 C 98 % 1028,3 hPa 0,0 l/m 0 min 0 min 0 W/m 9,7 km/h (2 Bft) 95,74 %
24.09.2018 07:14 6,4 C 5,6 C 6,1 C 98 % 1028,2 hPa 0,0 l/m 0 min 0 min 0 W/m 6,4 km/h (2 Bft) 97,87 %
24.09.2018 07:16 6,4 C 5,6 C 6,1 C 98 % 1028,3 hPa 0,0 l/m 0 min 0 min 0 W/m 3,2 km/h (1 Bft) 95,12 %
24.09.2018 07:18 6,3 C 5,6 C 6,1 C 98 % 1028,3 hPa 0,0 l/m 0 min 0 min 0 W/m 0,0 km/h (0 Bft) 95,74 %
24.09.2018 07:20 6,3 C 5,6 C 6,1 C 97 % 1028,3 hPa 0,0 l/m 0 min 0 min 0 W/m 0,0 km/h (0 Bft) 98,11 %
24.09.2018 07:22 6,3 C 5,6 C 6,1 C 97 % 1028,3 hPa 0,0 l/m 0 min 0 min 5 W/m 0,0 km/h (0 Bft) 96,00 %
24.09.2018 07:24 6,3 C 5,6 C 6,1 C 97 % 1028,3 hPa 0,0 l/m 0 min 0 min 5 W/m 0,0 km/h (0 Bft) 97,14 %
24.09.2018 07:26 6,3 C 5,6 C 6,1 C 97 % 1028,3 hPa 0,0 l/m 0 min 0 min 5 W/m 0,0 km/h (0 Bft) 95,74 %
24.09.2018 07:28 6,3 C 5,6 C 6,1 C 97 % 1028,4 hPa 0,0 l/m 0 min 0 min 6 W/m 0,0 km/h (0 Bft) 95,74 %
24.09.2018 07:30 6,3 C 5,6 C 6,1 C 97 % 1028,4 hPa 0,0 l/m 0 min 0 min 7 W/m 0,0 km/h (0 Bft) 95,74 %
24.09.2018 07:32 6,3 C 5,6 C 6,1 C 97 % 1028,5 hPa 0,0 l/m 0 min 0 min 7 W/m 0,0 km/h (0 Bft) 97,87 %
24.09.2018 07:34 6,3 C 5,6 C 6,1 C 97 % 1028,5 hPa 0,0 l/m 0 min 0 min 9 W/m 3,2 km/h (1 Bft) 97,83 %
24.09.2018 07:38 6,3 C 5,6 C 6,1 C 97 % 1028,5 hPa 0,0 l/m 0 min 0 min 10 W/m 0,0 km/h (0 Bft) 97,89 %
24.09.2018 07:40 6,3 C 5,6 C 6,1 C 97 % 1028,5 hPa 0,0 l/m 0 min 0 min 11 W/m 0,0 km/h (0 Bft) 97,87 %
24.09.2018 07:42 6,3 C 5,6 C 6,1 C 97 % 1028,5 hPa 0,0 l/m 0 min 0 min 12 W/m 0,0 km/h (0 Bft) 93,62 %
24.09.2018 07:45 6,3 C 5,6 C 6,1 C 97 % 1028,6 hPa 0,0 l/m 0 min 0 min 13 W/m 6,4 km/h (2 Bft) 97,53 %
24.09.2018 07:46 6,3 C 5,6 C 6,1 C 97 % 1028,6 hPa 0,0 l/m 0 min 0 min 14 W/m 3,2 km/h (1 Bft) 92,31 %
24.09.2018 07:48 6,3 C 5,6 C 6,1 C 97 % 1028,7 hPa 0,0 l/m 0 min 0 min 16 W/m 6,4 km/h (2 Bft) 93,62 %
24.09.2018 07:50 6,3 C 5,6 C 6,1 C 97 % 1028,8 hPa 0,0 l/m 0 min 0 min 19 W/m 6,4 km/h (2 Bft) 94,92 %
24.09.2018 07:52 6,3 C 5,6 C 6,1 C 97 % 1028,8 hPa 0,0 l/m 0 min 0 min 18 W/m 3,2 km/h (1 Bft) 94,44 %
24.09.2018 07:54 6,3 C 5,6 C 6,1 C 97 % 1028,8 hPa 0,0 l/m 0 min 0 min 18 W/m 3,2 km/h (1 Bft) 97,87 %
24.09.2018 07:56 6,3 C 5,6 C 6,1 C 97 % 1028,8 hPa 0,0 l/m 0 min 0 min 16 W/m 6,4 km/h (2 Bft) 97,87 %
24.09.2018 07:58 6,4 C 6,1 C 6,1 C 97 % 1028,9 hPa 0,0 l/m 0 min 0 min 16 W/m 6,4 km/h (2 Bft) 97,83 %
24.09.2018 08:00 6,4 C 6,1 C 6,1 C 98 % 1028,9 hPa 0,0 l/m 0 min 0 min 16 W/m 6,4 km/h (2 Bft) 91,49 %
24.09.2018 08:02 6,4 C 6,1 C 6,1 C 98 % 1029,0 hPa 0,0 l/m 0 min 0 min 18 W/m 3,2 km/h (1 Bft) 93,62 %
24.09.2018 08:04 6,4 C 6,1 C 6,1 C 98 % 1029,0 hPa 0,0 l/m 0 min 0 min 19 W/m 3,2 km/h (1 Bft) 95,74 %
24.09.2018 08:06 6,4 C 6,1 C 6,1 C 98 % 1029,0 hPa 0,0 l/m 0 min 0 min 20 W/m 3,2 km/h (1 Bft) 95,74 %
24.09.2018 08:08 6,4 C 6,1 C 6,1 C 98 % 1029,0 hPa 0,0 l/m 0 min 0 min 23 W/m 3,2 km/h (1 Bft) 95,65 %
24.09.2018 08:10 6,4 C 6,1 C 6,1 C 98 % 1029,0 hPa 0,0 l/m 0 min 0 min 25 W/m 0,0 km/h (0 Bft) 95,74 %
24.09.2018 08:12 6,4 C 6,1 C 6,1 C 98 % 1029,0 hPa 0,0 l/m 0 min 0 min 26 W/m 6,4 km/h (2 Bft) 95,74 %
24.09.2018 08:14 6,4 C 6,1 C 6,7 C 98 % 1029,0 hPa 0,0 l/m 0 min 0 min 26 W/m 6,4 km/h (2 Bft) 97,87 %
24.09.2018 08:16 6,4 C 6,1 C 6,7 C 98 % 1029,0 hPa 0,0 l/m 0 min 0 min 28 W/m 6,4 km/h (2 Bft) 93,62 %
24.09.2018 08:18 6,4 C 6,1 C 6,7 C 98 % 1029,0 hPa 0,0 l/m 0 min 0 min 29 W/m 6,4 km/h (2 Bft) 97,87 %
24.09.2018 08:20 6,5 C 6,1 C 6,7 C 98 % 1029,0 hPa 0,0 l/m 0 min 0 min 32 W/m 6,4 km/h (2 Bft) 97,83 %
24.09.2018 08:22 6,6 C 6,1 C 6,7 C 98 % 1029,0 hPa 0,0 l/m 0 min 0 min 32 W/m 3,2 km/h (1 Bft) 97,92 %
24.09.2018 08:24 6,6 C 6,1 C 6,7 C 98 % 1029,1 hPa 0,0 l/m 0 min 0 min 29 W/m 3,2 km/h (1 Bft) 97,87 %
24.09.2018 08:26 6,6 C 6,1 C 6,7 C 98 % 1029,1 hPa 0,0 l/m 0 min 0 min 28 W/m 3,2 km/h (1 Bft) 93,62 %
24.09.2018 08:28 6,6 C 6,1 C 6,7 C 98 % 1029,1 hPa 0,0 l/m 0 min 0 min 28 W/m 6,4 km/h (2 Bft) 97,87 %
24.09.2018 08:30 6,6 C 6,1 C 6,7 C 98 % 1029,2 hPa 0,0 l/m 0 min 0 min 28 W/m 3,2 km/h (1 Bft) 97,87 %
24.09.2018 08:32 6,7 C 6,7 C 6,7 C 98 % 1029,2 hPa 0,0 l/m 0 min 0 min 28 W/m 0,0 km/h (0 Bft) 95,65 %
24.09.2018 08:34 6,7 C 6,7 C 6,7 C 98 % 1029,2 hPa 0,0 l/m 0 min 0 min 30 W/m 0,0 km/h (0 Bft) 97,87 %
24.09.2018 08:36 6,7 C 6,7 C 6,7 C 98 % 1029,2 hPa 0,0 l/m 0 min 0 min 30 W/m 0,0 km/h (0 Bft) 95,74 %
24.09.2018 08:38 6,7 C 6,7 C 6,7 C 98 % 1029,2 hPa 0,0 l/m 0 min 0 min 30 W/m 0,0 km/h (0 Bft) 97,87 %
24.09.2018 08:40 6,7 C 6,7 C 6,7 C 98 % 1029,2 hPa 0,0 l/m 0 min 0 min 32 W/m 0,0 km/h (0 Bft) 97,87 %
24.09.2018 08:42 6,8 C 6,7 C 7,2 C 98 % 1029,3 hPa 0,0 l/m 0 min 0 min 32 W/m 0,0 km/h (0 Bft) 97,87 %
24.09.2018 08:44 6,8 C 6,7 C 7,2 C 98 % 1029,3 hPa 0,0 l/m 0 min 0 min 32 W/m 0,0 km/h (0 Bft) 100,00 %
24.09.2018 08:46 6,9 C 6,7 C 7,2 C 98 % 1029,2 hPa 0,0 l/m 0 min 0 min 33 W/m 0,0 km/h (0 Bft) 100,00 %
24.09.2018 08:48 6,9 C 6,7 C 7,2 C 98 % 1029,3 hPa 0,0 l/m 0 min 0 min 33 W/m 6,4 km/h (2 Bft) 100,00 %
24.09.2018 08:50 6,9 C 6,7 C 7,2 C 98 % 1029,3 hPa 0,0 l/m 0 min 0 min 33 W/m 3,2 km/h (1 Bft) 100,00 %
24.09.2018 08:52 7,0 C 7,2 C 7,2 C 98 % 1029,4 hPa 0,0 l/m 0 min 0 min 33 W/m 6,4 km/h (2 Bft) 100,00 %
24.09.2018 08:54 7,1 C 7,2 C 7,2 C 98 % 1029,4 hPa 0,0 l/m 0 min 0 min 35 W/m 3,2 km/h (1 Bft) 100,00 %
24.09.2018 08:56 7,1 C 7,2 C 7,2 C 98 % 1029,4 hPa 0,0 l/m 0 min 0 min 35 W/m 3,2 km/h (1 Bft) 100,00 %
24.09.2018 08:58 7,1 C 7,2 C 7,2 C 98 % 1029,5 hPa 0,2 l/m 0 min 0 min 37 W/m 3,2 km/h (1 Bft) 100,00 %
24.09.2018 09:00 7,2 C 7,2 C 7,2 C 98 % 1029,5 hPa 0,0 l/m 0 min 0 min 38 W/m 3,2 km/h (1 Bft) 100,00 %
24.09.2018 09:02 7,2 C 7,2 C 7,2 C 98 % 1029,5 hPa 0,0 l/m 0 min 0 min 40 W/m 3,2 km/h (1 Bft) 100,00 %
24.09.2018 09:04 7,2 C 7,8 C 7,2 C 98 % 1029,6 hPa 0,0 l/m 0 min 0 min 40 W/m 0,0 km/h (0 Bft) 100,00 %
24.09.2018 09:06 7,3 C 7,8 C 7,8 C 98 % 1029,6 hPa 0,0 l/m 0 min 0 min 43 W/m 6,4 km/h (2 Bft) 97,87 %
24.09.2018 09:08 7,3 C 7,8 C 7,8 C 98 % 1029,6 hPa 0,0 l/m 0 min 0 min 44 W/m 3,2 km/h (1 Bft) 93,62 %
24.09.2018 09:10 7,3 C 7,8 C 7,8 C 98 % 1029,6 hPa 0,0 l/m 0 min 0 min 43 W/m 6,4 km/h (2 Bft) 95,65 %
24.09.2018 09:12 7,4 C 8,3 C 7,8 C 98 % 1029,7 hPa 0,0 l/m 0 min 0 min 42 W/m 6,4 km/h (2 Bft) 97,87 %
24.09.2018 09:14 7,5 C 7,8 C 7,8 C 98 % 1029,7 hPa 0,0 l/m 0 min 0 min 42 W/m 6,4 km/h (2 Bft) 95,74 %
24.09.2018 09:16 7,5 C 8,3 C 7,8 C 98 % 1029,7 hPa 0,0 l/m 0 min 0 min 43 W/m 3,2 km/h (1 Bft) 97,87 %
24.09.2018 09:18 7,6 C 8,3 C 7,8 C 98 % 1029,7 hPa 0,0 l/m 0 min 0 min 44 W/m 3,2 km/h (1 Bft) 97,87 %
24.09.2018 09:20 7,6 C 8,3 C 7,8 C 98 % 1029,7 hPa 0,0 l/m 0 min 0 min 44 W/m 3,2 km/h (1 Bft) 93,62 %
24.09.2018 09:22 7,7 C 8,3 C 7,8 C 98 % 1029,8 hPa 0,0 l/m 0 min 0 min 44 W/m 9,7 km/h (2 Bft) 97,83 %
24.09.2018 09:24 7,7 C 8,3 C 7,8 C 98 % 1029,8 hPa 0,0 l/m 0 min 0 min 44 W/m 0,0 km/h (0 Bft) 97,87 %
24.09.2018 09:26 7,7 C 8,3 C 7,8 C 98 % 1029,9 hPa 0,0 l/m 0 min 0 min 44 W/m 6,4 km/h (2 Bft) 93,62 %
24.09.2018 09:28 7,8 C 8,3 C 7,8 C 98 % 1029,9 hPa 0,0 l/m 0 min 0 min 45 W/m 9,7 km/h (2 Bft) 97,87 %
24.09.2018 09:30 7,8 C 8,3 C 7,8 C 98 % 1029,9 hPa 0,0 l/m 0 min 0 min 46 W/m 6,4 km/h (2 Bft) 93,62 %
24.09.2018 09:32 7,9 C 8,9 C 8,3 C 98 % 1029,9 hPa 0,0 l/m 0 min 0 min 46 W/m 6,4 km/h (2 Bft) 95,92 %
24.09.2018 09:34 7,9 C 8,9 C 8,3 C 98 % 1030,0 hPa 0,0 l/m 0 min 0 min 46 W/m 6,4 km/h (2 Bft) 95,65 %
24.09.2018 09:36 8,0 C 8,9 C 8,3 C 98 % 1030,1 hPa 0,0 l/m 0 min 0 min 47 W/m 6,4 km/h (2 Bft) 97,87 %
24.09.2018 09:38 8,1 C 8,9 C 8,3 C 98 % 1030,1 hPa 0,0 l/m 0 min 0 min 47 W/m 6,4 km/h (2 Bft) 95,74 %
24.09.2018 09:40 8,1 C 8,9 C 8,3 C 98 % 1030,2 hPa 0,0 l/m 0 min 0 min 47 W/m 9,7 km/h (2 Bft) 95,74 %
24.09.2018 09:42 8,2 C 8,9 C 8,3 C 98 % 1030,3 hPa 0,0 l/m 0 min 0 min 49 W/m 6,4 km/h (2 Bft) 97,87 %
24.09.2018 09:44 8,2 C 8,9 C 8,3 C 98 % 1030,2 hPa 0,0 l/m 0 min 0 min 143 W/m 6,4 km/h (2 Bft) 95,65 %
24.09.2018 09:46 8,3 C 9,4 C 8,3 C 98 % 1030,3 hPa 0,0 l/m 2 min 0 min 248 W/m 9,7 km/h (2 Bft) 97,96 %
24.09.2018 09:48 8,3 C 9,4 C 8,3 C 98 % 1030,4 hPa 0,0 l/m 2 min 0 min 253 W/m 6,4 km/h (2 Bft) 97,87 %
24.09.2018 09:50 8,4 C 9,4 C 8,3 C 98 % 1030,4 hPa 0,0 l/m 2 min 0 min 258 W/m 9,7 km/h (2 Bft) 97,87 %
24.09.2018 09:52 8,4 C 9,4 C 8,9 C 98 % 1030,5 hPa 0,0 l/m 2 min 0 min 263 W/m 6,4 km/h (2 Bft) 100,00 %
24.09.2018 09:54 8,5 C 10,0 C 8,9 C 98 % 1030,5 hPa 0,0 l/m 2 min 0 min 268 W/m 9,7 km/h (2 Bft) 97,83 %
24.09.2018 09:56 8,5 C 11,1 C 8,9 C 98 % 1030,5 hPa 0,0 l/m 2 min 0 min 273 W/m 6,4 km/h (2 Bft) 97,87 %
24.09.2018 09:58 8,6 C 11,7 C 8,9 C 98 % 1030,6 hPa 0,0 l/m 2 min 0 min 277 W/m 9,7 km/h (2 Bft) 97,87 %
24.09.2018 10:00 8,7 C 11,1 C 8,9 C 97 % 1030,6 hPa 0,0 l/m 2 min 0 min 283 W/m 3,2 km/h (1 Bft) 100,00 %
24.09.2018 10:02 8,7 C 11,1 C 8,9 C 97 % 1030,6 hPa 0,0 l/m 2 min 0 min 289 W/m 6,4 km/h (2 Bft) 100,00 %
24.09.2018 10:04 8,8 C 12,8 C 8,9 C 98 % 1030,7 hPa 0,0 l/m 2 min 0 min 295 W/m 6,4 km/h (2 Bft) 100,00 %
24.09.2018 10:06 8,9 C 13,3 C 8,9 C 98 % 1030,7 hPa 0,0 l/m 2 min 0 min 302 W/m 9,7 km/h (2 Bft) 97,87 %
24.09.2018 10:12 9,2 C 11,7 C 9,4 C 98 % 1030,8 hPa 0,0 l/m 0 min 0 min 102 W/m 6,4 km/h (2 Bft) 94,87 %
24.09.2018 10:14 9,3 C 11,7 C 9,4 C 97 % 1030,8 hPa 0,0 l/m 0 min 0 min 160 W/m 12,9 km/h (3 Bft) 97,73 %
24.09.2018 10:16 9,3 C 12,2 C 9,4 C 97 % 1030,8 hPa 0,0 l/m 2 min 0 min 209 W/m 3,2 km/h (1 Bft) 95,65 %
24.09.2018 10:18 9,4 C 13,3 C 9,4 C 97 % 1031,0 hPa 0,0 l/m 0 min 0 min 120 W/m 3,2 km/h (1 Bft) 95,74 %
24.09.2018 10:20 9,6 C 14,4 C 9,4 C 97 % 1031,0 hPa 0,0 l/m 0 min 0 min 122 W/m 12,9 km/h (3 Bft) 100,00 %
24.09.2018 10:22 9,7 C 14,4 C 9,4 C 97 % 1031,1 hPa 0,0 l/m 0 min 0 min 145 W/m 16,1 km/h (3 Bft) 97,14 %
24.09.2018 10:24 9,8 C 13,3 C 10,0 C 97 % 1031,1 hPa 0,0 l/m 0 min 0 min 180 W/m 12,9 km/h (3 Bft) 100,00 %
24.09.2018 10:26 9,9 C 13,9 C 10,0 C 97 % 1031,1 hPa 0,0 l/m 2 min 0 min 220 W/m 9,7 km/h (2 Bft) 95,74 %
24.09.2018 10:28 10,0 C 12,8 C 10,0 C 97 % 1031,1 hPa 0,0 l/m 2 min 0 min 225 W/m 6,4 km/h (2 Bft) 97,83 %
24.09.2018 10:30 10,1 C 12,8 C 10,0 C 97 % 1031,1 hPa 0,0 l/m 0 min 0 min 205 W/m 6,4 km/h (2 Bft) 100,00 %
24.09.2018 10:32 10,2 C 12,2 C 10,0 C 97 % 1031,1 hPa 0,0 l/m 0 min 0 min 184 W/m 12,9 km/h (3 Bft) 100,00 %
24.09.2018 10:34 10,3 C 12,2 C 10,0 C 96 % 1031,1 hPa 0,0 l/m 0 min 0 min 179 W/m 6,4 km/h (2 Bft) 95,74 %
24.09.2018 10:36 10,3 C 11,7 C 10,0 C 96 % 1031,2 hPa 0,0 l/m 0 min 0 min 177 W/m 12,9 km/h (3 Bft) 95,74 %
24.09.2018 10:38 10,4 C 11,7 C 10,0 C 96 % 1031,2 hPa 0,0 l/m 0 min 0 min 178 W/m 6,4 km/h (2 Bft) 95,65 %
24.09.2018 10:40 10,4 C 11,7 C 10,0 C 95 % 1031,2 hPa 0,0 l/m 0 min 0 min 203 W/m 6,4 km/h (2 Bft) 95,74 %
24.09.2018 10:42 10,5 C 12,8 C 10,0 C 95 % 1031,2 hPa 0,0 l/m 2 min 0 min 245 W/m 19,3 km/h (3 Bft) 95,74 %
24.09.2018 10:44 10,6 C 13,3 C 10,6 C 94 % 1031,2 hPa 0,0 l/m 2 min 0 min 266 W/m 16,1 km/h (3 Bft) 95,74 %
24.09.2018 10:46 10,6 C 12,8 C 10,6 C 94 % 1031,2 hPa 0,0 l/m 2 min 0 min 253 W/m 9,7 km/h (2 Bft) 95,83 %
24.09.2018 10:48 10,7 C 13,3 C 10,6 C 93 % 1031,1 hPa 0,0 l/m 2 min 0 min 241 W/m 9,7 km/h (2 Bft) 97,87 %
24.09.2018 10:50 10,8 C 12,8 C 10,6 C 93 % 1031,2 hPa 0,0 l/m 0 min 0 min 207 W/m 12,9 km/h (3 Bft) 97,83 %
24.09.2018 10:52 10,9 C 12,2 C 10,6 C 92 % 1031,2 hPa 0,0 l/m 0 min 0 min 219 W/m 12,9 km/h (3 Bft) 95,74 %
24.09.2018 10:54 10,9 C 12,2 C 10,6 C 92 % 1031,2 hPa 0,0 l/m 0 min 0 min 235 W/m 16,1 km/h (3 Bft) 95,74 %
24.09.2018 10:56 11,0 C 12,2 C 10,6 C 91 % 1031,2 hPa 0,0 l/m 0 min 0 min 203 W/m 19,3 km/h (3 Bft) 95,74 %
24.09.2018 10:58 11,0 C 12,2 C 10,6 C 90 % 1031,2 hPa 0,0 l/m 0 min 0 min 175 W/m 12,9 km/h (3 Bft) 95,74 %
24.09.2018 11:00 11,1 C 11,7 C 10,6 C 89 % 1031,3 hPa 0,0 l/m 0 min 0 min 177 W/m 12,9 km/h (3 Bft) 95,74 %
24.09.2018 11:02 11,1 C 12,8 C 10,0 C 89 % 1031,2 hPa 0,0 l/m 0 min 0 min 236 W/m 12,9 km/h (3 Bft) 95,74 %
24.09.2018 11:04 11,1 C 14,4 C 10,6 C 88 % 1031,3 hPa 0,0 l/m 2 min 0 min 302 W/m 16,1 km/h (3 Bft) 95,74 %
24.09.2018 11:06 11,2 C 16,1 C 10,6 C 88 % 1031,2 hPa 0,0 l/m 2 min 0 min 404 W/m 12,9 km/h (3 Bft) 95,74 %
24.09.2018 11:08 11,3 C 15,6 C 10,6 C 88 % 1031,2 hPa 0,0 l/m 2 min 0 min 297 W/m 9,7 km/h (2 Bft) 95,74 %
24.09.2018 11:10 11,4 C 17,2 C 10,6 C 88 % 1031,2 hPa 0,0 l/m 2 min 0 min 326 W/m 9,7 km/h (2 Bft) 97,87 %
24.09.2018 11:12 11,5 C 17,2 C 10,6 C 88 % 1031,3 hPa 0,0 l/m 2 min 0 min 452 W/m 12,9 km/h (3 Bft) 95,65 %
24.09.2018 11:14 11,6 C 18,3 C 10,6 C 88 % 1031,2 hPa 0,0 l/m 2 min 0 min 449 W/m 9,7 km/h (2 Bft) 95,74 %
24.09.2018 11:16 11,8 C 18,3 C 10,6 C 88 % 1031,3 hPa 0,0 l/m 2 min 0 min 449 W/m 9,7 km/h (2 Bft) 95,74 %
24.09.2018 11:18 11,9 C 18,9 C 11,1 C 87 % 1031,3 hPa 0,0 l/m 2 min 0 min 451 W/m 6,4 km/h (2 Bft) 97,87 %
24.09.2018 11:20 12,1 C 17,8 C 11,1 C 87 % 1031,3 hPa 0,0 l/m 2 min 0 min 453 W/m 9,7 km/h (2 Bft) 93,62 %
24.09.2018 11:22 12,2 C 17,8 C 11,1 C 86 % 1031,4 hPa 0,0 l/m 2 min 0 min 459 W/m 22,5 km/h (4 Bft) 95,74 %
24.09.2018 11:24 12,4 C 18,9 C 11,1 C 86 % 1031,3 hPa 0,0 l/m 2 min 0 min 465 W/m 19,3 km/h (3 Bft) 91,49 %
24.09.2018 11:26 12,5 C 18,3 C 11,1 C 84 % 1031,3 hPa 0,0 l/m 2 min 0 min 448 W/m 16,1 km/h (3 Bft) 95,65 %
24.09.2018 11:28 12,6 C 18,3 C 11,1 C 84 % 1031,3 hPa 0,0 l/m 2 min 0 min 438 W/m 12,9 km/h (3 Bft) 95,74 %
24.09.2018 11:30 12,7 C 18,3 C 11,1 C 83 % 1031,3 hPa 0,0 l/m 2 min 0 min 473 W/m 6,4 km/h (2 Bft) 93,62 %
24.09.2018 11:32 12,8 C 18,9 C 11,1 C 83 % 1031,3 hPa 0,0 l/m 2 min 0 min 475 W/m 22,5 km/h (4 Bft) 95,74 %
24.09.2018 11:34 12,9 C 18,3 C 11,1 C 82 % 1031,4 hPa 0,0 l/m 2 min 0 min 476 W/m 19,3 km/h (3 Bft) 95,74 %
24.09.2018 11:36 13,0 C 18,9 C 11,1 C 82 % 1031,4 hPa 0,0 l/m 2 min 0 min 408 W/m 9,7 km/h (2 Bft) 95,65 %
24.09.2018 11:38 13,1 C 19,4 C 11,7 C 82 % 1031,5 hPa 0,0 l/m 0 min 0 min 100 W/m 12,9 km/h (3 Bft) 95,74 %
24.09.2018 11:40 13,2 C 20,6 C 11,7 C 82 % 1031,4 hPa 0,0 l/m 0 min 0 min 73 W/m 9,7 km/h (2 Bft) 95,74 %
24.09.2018 11:42 13,3 C 20,6 C 11,7 C 82 % 1031,4 hPa 0,0 l/m 0 min 0 min 78 W/m 12,9 km/h (3 Bft) 93,62 %
24.09.2018 11:44 13,4 C 20,6 C 11,7 C 82 % 1031,5 hPa 0,0 l/m 0 min 0 min 126 W/m 9,7 km/h (2 Bft) 93,62 %
24.09.2018 11:46 13,6 C 20,0 C 11,7 C 82 % 1031,5 hPa 0,0 l/m 0 min 0 min 119 W/m 9,7 km/h (2 Bft) 95,74 %
24.09.2018 11:48 13,7 C 21,1 C 11,7 C 81 % 1031,5 hPa 0,0 l/m 0 min 0 min 137 W/m 9,7 km/h (2 Bft) 95,74 %
24.09.2018 11:50 13,8 C 20,6 C 11,7 C 81 % 1031,5 hPa 0,0 l/m 0 min 0 min 213 W/m 12,9 km/h (3 Bft) 91,49 %
24.09.2018 11:52 13,9 C 20,6 C 12,2 C 81 % 1031,5 hPa 0,0 l/m 0 min 0 min 176 W/m 12,9 km/h (3 Bft) 95,74 %
24.09.2018 11:54 14,2 C 20,0 C 12,2 C 81 % 1031,6 hPa 0,0 l/m 0 min 0 min 164 W/m 16,1 km/h (3 Bft) 95,74 %
24.09.2018 11:56 14,2 C 20,6 C 12,2 C 80 % 1031,5 hPa 0,0 l/m 0 min 0 min 152 W/m 12,9 km/h (3 Bft) 95,74 %
24.09.2018 11:58 14,2 C 18,9 C 12,2 C 79 % 1031,5 hPa 0,0 l/m 0 min 0 min 136 W/m 12,9 km/h (3 Bft) 93,62 %
24.09.2018 12:00 14,3 C 17,8 C 12,2 C 77 % 1031,6 hPa 0,0 l/m 0 min 0 min 102 W/m 16,1 km/h (3 Bft) 97,83 %
24.09.2018 12:02 14,4 C 18,3 C 12,2 C 76 % 1031,5 hPa 0,0 l/m 0 min 0 min 114 W/m 9,7 km/h (2 Bft) 97,87 %
24.09.2018 12:04 14,4 C 20,0 C 12,2 C 76 % 1031,6 hPa 0,0 l/m 0 min 0 min 142 W/m 12,9 km/h (3 Bft) 95,74 %
24.09.2018 12:06 14,5 C 21,7 C 12,2 C 77 % 1031,6 hPa 0,0 l/m 0 min 0 min 150 W/m 9,7 km/h (2 Bft) 97,87 %
24.09.2018 12:08 14,6 C 21,7 C 12,2 C 77 % 1031,6 hPa 0,0 l/m 0 min 0 min 165 W/m 19,3 km/h (3 Bft) 97,87 %
24.09.2018 12:10 14,7 C 21,7 C 12,8 C 76 % 1031,6 hPa 0,0 l/m 0 min 0 min 191 W/m 19,3 km/h (3 Bft) 97,87 %
24.09.2018 12:12 14,8 C 22,2 C 12,8 C 75 % 1031,6 hPa 0,0 l/m 0 min 0 min 230 W/m 16,1 km/h (3 Bft) 97,83 %
24.09.2018 12:14 14,9 C 21,7 C 12,8 C 75 % 1031,6 hPa 0,0 l/m 2 min 0 min 322 W/m 12,9 km/h (3 Bft) 95,74 %
24.09.2018 12:16 15,0 C 20,0 C 12,8 C 74 % 1031,6 hPa 0,0 l/m 2 min 0 min 369 W/m 19,3 km/h (3 Bft) 97,87 %
24.09.2018 12:18 15,1 C 18,9 C 12,8 C 73 % 1031,5 hPa 0,0 l/m 2 min 0 min 321 W/m 16,1 km/h (3 Bft) 97,87 %
24.09.2018 12:20 15,1 C 16,7 C 12,8 C 73 % 1031,6 hPa 0,0 l/m 0 min 0 min 276 W/m 22,5 km/h (4 Bft) 97,87 %
24.09.2018 12:22 15,1 C 15,0 C 12,2 C 72 % 1031,5 hPa 0,0 l/m 0 min 0 min 231 W/m 12,9 km/h (3 Bft) 96,23 %
24.09.2018 12:24 14,9 C 14,4 C 12,2 C 72 % 1031,5 hPa 0,0 l/m 0 min 2 min 157 W/m 16,1 km/h (3 Bft) 98,00 %
24.09.2018 12:26 14,8 C 13,9 C 12,2 C 72 % 1031,5 hPa 0,0 l/m 0 min 2 min 139 W/m 19,3 km/h (3 Bft) 95,65 %
24.09.2018 12:28 14,7 C 13,3 C 11,7 C 73 % 1031,5 hPa 0,0 l/m 0 min 0 min 158 W/m 9,7 km/h (2 Bft) 97,87 %
24.09.2018 12:30 14,6 C 13,3 C 11,7 C 73 % 1031,5 hPa 0,0 l/m 0 min 0 min 173 W/m 12,9 km/h (3 Bft) 97,87 %
24.09.2018 12:32 14,5 C 13,3 C 11,7 C 73 % 1031,6 hPa 0,0 l/m 0 min 0 min 155 W/m 19,3 km/h (3 Bft) 97,87 %
24.09.2018 12:34 14,3 C 13,3 C 11,7 C 73 % 1031,5 hPa 0,0 l/m 0 min 0 min 142 W/m 16,1 km/h (3 Bft) 97,87 %
24.09.2018 12:36 14,2 C 12,8 C 11,7 C 74 % 1031,5 hPa 0,0 l/m 0 min 0 min 132 W/m 29,0 km/h (5 Bft) 97,22 %
24.09.2018 12:38 14,2 C 12,8 C 11,7 C 73 % 1031,5 hPa 0,0 l/m 0 min 0 min 116 W/m 19,3 km/h (3 Bft) 100,00 %
24.09.2018 12:40 14,1 C 15,6 C 11,7 C 74 % 1031,5 hPa 0,0 l/m 0 min 0 min 102 W/m 16,1 km/h (3 Bft) 100,00 %
24.09.2018 12:42 14,0 C 18,3 C 11,7 C 74 % 1031,5 hPa 0,0 l/m 0 min 0 min 87 W/m 16,1 km/h (3 Bft) 97,83 %
24.09.2018 12:44 14,0 C 19,4 C 12,2 C 75 % 1031,4 hPa 0,0 l/m 0 min 0 min 77 W/m 16,1 km/h (3 Bft) 97,87 %
24.09.2018 12:46 14,0 C 20,6 C 12,2 C 75 % 1031,5 hPa 0,0 l/m 0 min 0 min 83 W/m 12,9 km/h (3 Bft) 100,00 %
24.09.2018 12:48 14,1 C 21,7 C 12,2 C 75 % 1031,5 hPa 0,0 l/m 0 min 0 min 81 W/m 16,1 km/h (3 Bft) 97,87 %
24.09.2018 12:50 14,2 C 20,6 C 12,8 C 75 % 1031,5 hPa 0,0 l/m 0 min 0 min 97 W/m 19,3 km/h (3 Bft) 95,74 %
24.09.2018 12:52 14,2 C 18,3 C 12,2 C 74 % 1031,5 hPa 0,0 l/m 0 min 0 min 128 W/m 12,9 km/h (3 Bft) 100,00 %
24.09.2018 12:54 14,2 C 16,7 C 12,2 C 74 % 1031,5 hPa 0,0 l/m 0 min 0 min 119 W/m 22,5 km/h (4 Bft) 100,00 %
24.09.2018 12:56 14,2 C 16,1 C 12,2 C 74 % 1031,6 hPa 0,0 l/m 0 min 0 min 124 W/m 16,1 km/h (3 Bft) 97,87 %
24.09.2018 12:58 14,2 C 15,6 C 12,2 C 74 % 1031,6 hPa 0,0 l/m 0 min 0 min 150 W/m 6,4 km/h (2 Bft) 100,00 %
24.09.2018 13:00 14,2 C 15,6 C 12,2 C 75 % 1031,6 hPa 0,0 l/m 0 min 0 min 143 W/m 16,1 km/h (3 Bft) 100,00 %
24.09.2018 13:02 14,2 C 15,6 C 12,8 C 74 % 1031,6 hPa 0,0 l/m 0 min 0 min 180 W/m 12,9 km/h (3 Bft) 100,00 %
24.09.2018 13:04 14,2 C 16,1 C 12,8 C 74 % 1031,5 hPa 0,0 l/m 0 min 0 min 199 W/m 9,7 km/h (2 Bft) 100,00 %
24.09.2018 13:06 14,3 C 15,6 C 12,8 C 73 % 1031,6 hPa 0,0 l/m 0 min 0 min 129 W/m 9,7 km/h (2 Bft) 100,00 %
24.09.2018 13:08 14,3 C 14,4 C 12,8 C 72 % 1031,6 hPa 0,0 l/m 0 min 0 min 138 W/m 12,9 km/h (3 Bft) 100,00 %
24.09.2018 13:10 14,3 C 14,4 C 12,2 C 72 % 1031,6 hPa 0,0 l/m 0 min 0 min 205 W/m 19,3 km/h (3 Bft) 100,00 %
24.09.2018 13:12 14,3 C 14,4 C 12,8 C 71 % 1031,7 hPa 0,0 l/m 0 min 0 min 209 W/m 16,1 km/h (3 Bft) 100,00 %
24.09.2018 13:14 14,3 C 15,0 C 12,8 C 72 % 1031,6 hPa 0,0 l/m 0 min 0 min 206 W/m 9,7 km/h (2 Bft) 100,00 %
24.09.2018 13:16 14,4 C 15,0 C 12,8 C 71 % 1031,7 hPa 0,0 l/m 0 min 0 min 160 W/m 12,9 km/h (3 Bft) 100,00 %
24.09.2018 13:18 14,4 C 15,0 C 12,8 C 71 % 1031,6 hPa 0,0 l/m 2 min 0 min 311 W/m 22,5 km/h (4 Bft) 100,00 %
24.09.2018 13:20 14,5 C 15,0 C 12,8 C 70 % 1031,7 hPa 0,0 l/m 2 min 0 min 559 W/m 22,5 km/h (4 Bft) 97,87 %
24.09.2018 13:22 14,5 C 14,4 C 12,8 C 69 % 1031,6 hPa 0,0 l/m 0 min 0 min 165 W/m 22,5 km/h (4 Bft) 100,00 %
24.09.2018 13:24 14,4 C 14,4 C 12,2 C 68 % 1031,7 hPa 0,0 l/m 0 min 0 min 129 W/m 12,9 km/h (3 Bft) 100,00 %
24.09.2018 13:26 14,4 C 13,9 C 12,2 C 69 % 1031,7 hPa 0,0 l/m 0 min 0 min 118 W/m 19,3 km/h (3 Bft) 95,65 %
24.09.2018 13:28 14,3 C 13,3 C 12,2 C 69 % 1031,7 hPa 0,0 l/m 0 min 0 min 111 W/m 12,9 km/h (3 Bft) 97,87 %
24.09.2018 13:30 14,3 C 13,3 C 12,2 C 70 % 1031,7 hPa 0,0 l/m 0 min 0 min 96 W/m 9,7 km/h (2 Bft) 97,87 %
24.09.2018 13:32 14,2 C 13,3 C 12,2 C 70 % 1031,7 hPa 0,0 l/m 0 min 0 min 96 W/m 9,7 km/h (2 Bft) 97,87 %
24.09.2018 13:34 14,2 C 13,9 C 12,2 C 70 % 1031,7 hPa 0,0 l/m 0 min 0 min 100 W/m 9,7 km/h (2 Bft) 97,87 %
24.09.2018 13:36 14,2 C 14,4 C 12,8 C 71 % 1031,7 hPa 0,0 l/m 2 min 0 min 559 W/m 9,7 km/h (2 Bft) 97,87 %
24.09.2018 13:38 14,2 C 14,4 C 12,8 C 71 % 1031,7 hPa 0,0 l/m 2 min 0 min 652 W/m 9,7 km/h (2 Bft) 97,83 %
24.09.2018 13:40 14,2 C 13,9 C 12,8 C 71 % 1031,7 hPa 0,0 l/m 0 min 0 min 274 W/m 12,9 km/h (3 Bft) 97,92 %
24.09.2018 13:42 14,2 C 13,9 C 12,2 C 71 % 1031,7 hPa 0,0 l/m 0 min 0 min 99 W/m 9,7 km/h (2 Bft) 97,87 %
24.09.2018 13:44 14,2 C 13,9 C 12,2 C 71 % 1031,7 hPa 0,0 l/m 2 min 0 min 408 W/m 12,9 km/h (3 Bft) 97,83 %
24.09.2018 13:46 14,2 C 14,4 C 12,8 C 71 % 1031,7 hPa 0,0 l/m 2 min 0 min 708 W/m 9,7 km/h (2 Bft) 97,92 %
24.09.2018 13:48 14,2 C 15,0 C 12,8 C 72 % 1031,7 hPa 0,0 l/m 2 min 0 min 641 W/m 16,1 km/h (3 Bft) 97,87 %
24.09.2018 13:50 14,3 C 15,0 C 13,3 C 72 % 1031,7 hPa 0,0 l/m 2 min 0 min 674 W/m 19,3 km/h (3 Bft) 97,87 %
24.09.2018 13:52 14,3 C 15,0 C 13,3 C 71 % 1031,7 hPa 0,0 l/m 2 min 0 min 703 W/m 16,1 km/h (3 Bft) 95,74 %
24.09.2018 13:54 14,4 C 15,6 C 13,3 C 70 % 1031,6 hPa 0,0 l/m 2 min 0 min 742 W/m 32,2 km/h (5 Bft) 100,00 %
24.09.2018 13:56 14,5 C 15,6 C 13,3 C 69 % 1031,7 hPa 0,0 l/m 2 min 0 min 779 W/m 12,9 km/h (3 Bft) 97,87 %
24.09.2018 13:58 14,6 C 15,6 C 13,9 C 69 % 1031,7 hPa 0,0 l/m 2 min 0 min 803 W/m 25,7 km/h (4 Bft) 95,65 %
24.09.2018 14:00 14,6 C 15,6 C 13,3 C 69 % 1031,6 hPa 0,0 l/m 2 min 0 min 497 W/m 9,7 km/h (2 Bft) 95,74 %
24.09.2018 14:02 14,7 C 15,0 C 13,3 C 69 % 1031,6 hPa 0,0 l/m 0 min 0 min 284 W/m 9,7 km/h (2 Bft) 91,49 %
24.09.2018 14:04 14,7 C 15,0 C 13,3 C 69 % 1031,7 hPa 0,0 l/m 2 min 0 min 339 W/m 19,3 km/h (3 Bft) 93,62 %
24.09.2018 14:06 14,8 C 15,0 C 13,3 C 69 % 1031,7 hPa 0,0 l/m 2 min 0 min 325 W/m 16,1 km/h (3 Bft) 95,74 %
24.09.2018 14:08 14,8 C 15,0 C 13,3 C 69 % 1031,7 hPa 0,0 l/m 0 min 0 min 209 W/m 16,1 km/h (3 Bft) 95,74 %
24.09.2018 14:10 14,8 C 14,4 C 12,8 C 70 % 1031,7 hPa 0,0 l/m 0 min 0 min 144 W/m 12,9 km/h (3 Bft) 95,65 %
24.09.2018 14:12 14,8 C 14,4 C 12,8 C 69 % 1031,9 hPa 0,0 l/m 0 min 0 min 113 W/m 32,2 km/h (5 Bft) 95,74 %
24.09.2018 14:14 14,7 C 13,3 C 12,2 C 67 % 1031,9 hPa 0,0 l/m 0 min 2 min 86 W/m 45,1 km/h (6 Bft) 95,74 %
24.09.2018 14:16 14,6 C 12,8 C 11,7 C 69 % 1032,1 hPa 0,0 l/m 0 min 2 min 84 W/m 32,2 km/h (5 Bft) 95,74 %
24.09.2018 14:18 14,4 C 11,7 C 11,1 C 69 % 1032,1 hPa 0,0 l/m 0 min 2 min 93 W/m 41,8 km/h (6 Bft) 95,74 %
24.09.2018 14:20 14,2 C 11,1 C 10,6 C 70 % 1032,1 hPa 0,0 l/m 0 min 2 min 98 W/m 22,5 km/h (4 Bft) 94,83 %
24.09.2018 14:22 13,9 C 11,1 C 10,0 C 72 % 1032,1 hPa 0,0 l/m 0 min 2 min 118 W/m 16,1 km/h (3 Bft) 95,74 %
24.09.2018 14:24 13,7 C 11,1 C 10,0 C 74 % 1032,0 hPa 0,0 l/m 0 min 2 min 130 W/m 12,9 km/h (3 Bft) 94,29 %
24.09.2018 14:26 13,5 C 11,1 C 10,0 C 75 % 1032,0 hPa 0,0 l/m 0 min 2 min 146 W/m 16,1 km/h (3 Bft) 95,74 %
24.09.2018 14:28 13,3 C 11,1 C 10,0 C 76 % 1032,0 hPa 0,0 l/m 0 min 0 min 172 W/m 19,3 km/h (3 Bft) 97,87 %
24.09.2018 14:30 13,2 C 11,7 C 10,6 C 77 % 1032,0 hPa 0,0 l/m 0 min 2 min 190 W/m 12,9 km/h (3 Bft) 97,87 %
24.09.2018 14:32 13,1 C 11,7 C 10,6 C 77 % 1032,0 hPa 0,0 l/m 0 min 0 min 202 W/m 22,5 km/h (4 Bft) 97,83 %
24.09.2018 14:34 12,9 C 11,7 C 10,6 C 78 % 1032,0 hPa 0,0 l/m 0 min 0 min 199 W/m 29,0 km/h (5 Bft) 97,87 %
24.09.2018 14:36 12,8 C 11,7 C 10,6 C 78 % 1032,0 hPa 0,0 l/m 0 min 0 min 188 W/m 16,1 km/h (3 Bft) 91,49 %
24.09.2018 14:38 12,7 C 11,7 C 10,6 C 78 % 1032,0 hPa 0,0 l/m 0 min 0 min 176 W/m 9,7 km/h (2 Bft) 93,62 %
24.09.2018 14:40 12,6 C 11,7 C 10,6 C 79 % 1032,0 hPa 0,0 l/m 0 min 0 min 153 W/m 16,1 km/h (3 Bft) 95,74 %
24.09.2018 14:42 12,4 C 11,7 C 10,6 C 79 % 1032,0 hPa 0,0 l/m 0 min 2 min 126 W/m 16,1 km/h (3 Bft) 97,87 %
24.09.2018 14:44 12,3 C 11,1 C 10,6 C 80 % 1032,0 hPa 0,0 l/m 0 min 2 min 112 W/m 19,3 km/h (3 Bft) 97,87 %
24.09.2018 14:46 12,2 C 11,1 C 10,0 C 80 % 1032,0 hPa 0,0 l/m 0 min 2 min 99 W/m 25,7 km/h (4 Bft) 93,88 %
24.09.2018 14:48 12,1 C 10,6 C 10,0 C 80 % 1032,0 hPa 0,0 l/m 0 min 2 min 93 W/m 19,3 km/h (3 Bft) 97,87 %
24.09.2018 14:50 12,0 C 10,0 C 10,0 C 80 % 1032,0 hPa 0,0 l/m 0 min 2 min 94 W/m 19,3 km/h (3 Bft) 100,00 %
24.09.2018 14:52 11,8 C 9,4 C 9,4 C 81 % 1031,9 hPa 0,0 l/m 0 min 2 min 111 W/m 16,1 km/h (3 Bft) 100,00 %
24.09.2018 14:54 11,8 C 9,4 C 9,4 C 81 % 1031,7 hPa 0,0 l/m 0 min 2 min 149 W/m 16,1 km/h (3 Bft) 97,14 %
24.09.2018 14:56 11,7 C 10,0 C 10,0 C 82 % 1031,9 hPa 0,0 l/m 0 min 2 min 189 W/m 9,7 km/h (2 Bft) 97,87 %
24.09.2018 14:58 11,7 C 10,0 C 10,0 C 82 % 1031,9 hPa 0,0 l/m 0 min 0 min 231 W/m 12,9 km/h (3 Bft) 97,87 %
24.09.2018 15:00 11,7 C 10,6 C 10,0 C 83 % 1031,9 hPa 0,0 l/m 0 min 0 min 263 W/m 9,7 km/h (2 Bft) 97,87 %
24.09.2018 15:02 11,7 C 10,6 C 10,0 C 83 % 1031,8 hPa 0,0 l/m 0 min 0 min 229 W/m 6,4 km/h (2 Bft) 97,83 %
24.09.2018 15:04 11,6 C 11,1 C 10,0 C 83 % 1031,8 hPa 0,0 l/m 0 min 0 min 213 W/m 6,4 km/h (2 Bft) 93,62 %
24.09.2018 15:06 11,6 C 11,7 C 10,6 C 84 % 1031,8 hPa 0,0 l/m 2 min 0 min 469 W/m 6,4 km/h (2 Bft) 97,87 %
24.09.2018 15:08 11,7 C 11,7 C 10,6 C 84 % 1031,8 hPa 0,0 l/m 2 min 0 min 496 W/m 6,4 km/h (2 Bft) 97,87 %
24.09.2018 15:10 11,7 C 12,2 C 11,1 C 84 % 1031,8 hPa 0,0 l/m 2 min 0 min 533 W/m 6,4 km/h (2 Bft) 95,74 %
24.09.2018 15:12 11,7 C 12,2 C 11,1 C 85 % 1031,7 hPa 0,0 l/m 2 min 0 min 570 W/m 9,7 km/h (2 Bft) 97,87 %
24.09.2018 15:14 11,8 C 12,2 C 11,1 C 85 % 1031,8 hPa 0,0 l/m 2 min 0 min 567 W/m 9,7 km/h (2 Bft) 97,83 %
24.09.2018 15:16 11,8 C 12,8 C 11,1 C 84 % 1031,9 hPa 0,0 l/m 2 min 0 min 563 W/m 9,7 km/h (2 Bft) 97,67 %
24.09.2018 15:18 11,8 C 12,8 C 11,7 C 84 % 1031,7 hPa 0,0 l/m 2 min 0 min 560 W/m 9,7 km/h (2 Bft) 97,87 %
24.09.2018 15:20 11,9 C 12,8 C 11,7 C 84 % 1031,8 hPa 0,0 l/m 2 min 0 min 560 W/m 9,7 km/h (2 Bft) 96,55 %
24.09.2018 15:22 11,9 C 13,3 C 11,7 C 84 % 1031,8 hPa 0,0 l/m 2 min 0 min 561 W/m 9,7 km/h (2 Bft) 97,92 %
24.09.2018 15:24 12,1 C 13,3 C 11,7 C 84 % 1031,7 hPa 0,0 l/m 2 min 0 min 561 W/m 12,9 km/h (3 Bft) 97,14 %
24.09.2018 15:26 12,1 C 13,3 C 12,2 C 83 % 1031,7 hPa 0,0 l/m 2 min 0 min 560 W/m 12,9 km/h (3 Bft) 97,87 %
24.09.2018 15:28 12,2 C 13,9 C 12,2 C 82 % 1031,7 hPa 0,0 l/m 2 min 0 min 560 W/m 9,7 km/h (2 Bft) 97,87 %
24.09.2018 15:30 12,3 C 13,9 C 12,2 C 82 % 1031,7 hPa 0,0 l/m 2 min 0 min 560 W/m 12,9 km/h (3 Bft) 97,87 %
24.09.2018 15:32 12,4 C 13,9 C 12,2 C 81 % 1031,8 hPa 0,0 l/m 2 min 0 min 558 W/m 19,3 km/h (3 Bft) 97,87 %
24.09.2018 15:34 12,6 C 13,9 C 12,2 C 80 % 1031,7 hPa 0,0 l/m 2 min 0 min 554 W/m 19,3 km/h (3 Bft) 97,87 %
24.09.2018 15:36 12,7 C 13,9 C 12,2 C 80 % 1031,7 hPa 0,0 l/m 2 min 0 min 553 W/m 16,1 km/h (3 Bft) 97,87 %
24.09.2018 15:38 12,8 C 13,9 C 12,2 C 79 % 1031,7 hPa 0,0 l/m 2 min 0 min 550 W/m 6,4 km/h (2 Bft) 100,00 %
24.09.2018 15:40 12,9 C 13,9 C 12,8 C 79 % 1031,7 hPa 0,0 l/m 2 min 0 min 548 W/m 19,3 km/h (3 Bft) 100,00 %
24.09.2018 15:42 13,0 C 13,9 C 12,2 C 79 % 1031,9 hPa 0,0 l/m 2 min 0 min 547 W/m 16,1 km/h (3 Bft) 95,74 %
24.09.2018 15:44 13,1 C 13,9 C 12,2 C 77 % 1031,7 hPa 0,0 l/m 2 min 0 min 546 W/m 16,1 km/h (3 Bft) 100,00 %
24.09.2018 15:46 13,2 C 14,4 C 12,2 C 77 % 1031,7 hPa 0,0 l/m 2 min 0 min 550 W/m 16,1 km/h (3 Bft) 100,00 %
24.09.2018 15:48 13,3 C 14,4 C 12,8 C 77 % 1031,8 hPa 0,0 l/m 2 min 0 min 548 W/m 22,5 km/h (4 Bft) 100,00 %
24.09.2018 15:50 13,4 C 14,4 C 12,8 C 76 % 1031,7 hPa 0,0 l/m 2 min 0 min 538 W/m 16,1 km/h (3 Bft) 100,00 %
24.09.2018 15:52 13,6 C 14,4 C 12,8 C 76 % 1031,7 hPa 0,0 l/m 2 min 0 min 542 W/m 9,7 km/h (2 Bft) 100,00 %
24.09.2018 15:54 13,7 C 14,4 C 12,8 C 75 % 1031,7 hPa 0,0 l/m 2 min 0 min 559 W/m 19,3 km/h (3 Bft) 97,87 %
24.09.2018 15:56 13,8 C 14,4 C 12,8 C 75 % 1031,7 hPa 0,0 l/m 2 min 0 min 559 W/m 12,9 km/h (3 Bft) 100,00 %
24.09.2018 15:58 13,8 C 14,4 C 12,8 C 75 % 1031,6 hPa 0,0 l/m 2 min 0 min 559 W/m 25,7 km/h (4 Bft) 100,00 %
24.09.2018 16:00 13,9 C 14,4 C 12,8 C 74 % 1031,6 hPa 0,0 l/m 2 min 0 min 559 W/m 19,3 km/h (3 Bft) 100,00 %
24.09.2018 16:02 14,0 C 14,4 C 12,8 C 74 % 1031,6 hPa 0,0 l/m 2 min 0 min 344 W/m 25,7 km/h (4 Bft) 100,00 %
24.09.2018 16:04 14,1 C 14,4 C 12,8 C 74 % 1031,7 hPa 0,0 l/m 2 min 0 min 245 W/m 16,1 km/h (3 Bft) 100,00 %
24.09.2018 16:06 14,1 C 14,4 C 12,8 C 74 % 1031,8 hPa 0,0 l/m 0 min 0 min 153 W/m 12,9 km/h (3 Bft) 100,00 %
24.09.2018 16:08 14,1 C 13,9 C 12,2 C 74 % 1032,0 hPa 0,0 l/m 0 min 0 min 70 W/m 38,6 km/h (5 Bft) 100,00 %
24.09.2018 16:10 14,0 C 11,7 C 10,6 C 75 % 1032,2 hPa 0,2 l/m 0 min 2 min 40 W/m 32,2 km/h (5 Bft) 100,00 %
24.09.2018 16:12 13,7 C 10,0 C 8,9 C 76 % 1032,3 hPa 0,6 l/m 0 min 2 min 44 W/m 35,4 km/h (5 Bft) 100,00 %
24.09.2018 16:14 13,5 C 8,9 C 8,9 C 78 % 1032,3 hPa 0,2 l/m 0 min 2 min 49 W/m 12,9 km/h (3 Bft) 100,00 %
24.09.2018 16:16 13,2 C 8,9 C 8,3 C 78 % 1032,1 hPa 0,0 l/m 0 min 2 min 50 W/m 16,1 km/h (3 Bft) 100,00 %
24.09.2018 16:18 12,9 C 8,3 C 8,3 C 79 % 1031,9 hPa 0,2 l/m 0 min 2 min 48 W/m 12,9 km/h (3 Bft) 100,00 %
24.09.2018 16:20 12,8 C 8,3 C 8,3 C 80 % 1031,9 hPa 0,0 l/m 0 min 2 min 55 W/m 9,7 km/h (2 Bft) 100,00 %
24.09.2018 16:22 12,6 C 8,9 C 8,3 C 80 % 1031,9 hPa 0,0 l/m 0 min 2 min 76 W/m 9,7 km/h (2 Bft) 100,00 %
24.09.2018 16:24 12,5 C 8,9 C 8,3 C 80 % 1031,9 hPa 0,0 l/m 0 min 2 min 91 W/m 9,7 km/h (2 Bft) 100,00 %
24.09.2018 16:26 12,4 C 10,0 C 8,9 C 81 % 1031,8 hPa 0,0 l/m 0 min 2 min 163 W/m 6,4 km/h (2 Bft) 100,00 %
24.09.2018 16:28 12,3 C 10,0 C 8,9 C 82 % 1031,8 hPa 0,0 l/m 2 min 0 min 345 W/m 9,7 km/h (2 Bft) 100,00 %
24.09.2018 16:30 12,2 C 10,0 C 8,9 C 82 % 1031,8 hPa 0,0 l/m 0 min 0 min 111 W/m 6,4 km/h (2 Bft) 100,00 %
24.09.2018 16:32 12,2 C 9,4 C 8,9 C 83 % 1031,8 hPa 0,0 l/m 0 min 0 min 84 W/m 6,4 km/h (2 Bft) 100,00 %
24.09.2018 16:34 12,1 C 9,4 C 8,9 C 83 % 1031,8 hPa 0,0 l/m 0 min 0 min 76 W/m 3,2 km/h (1 Bft) 100,00 %
24.09.2018 16:36 12,0 C 9,4 C 8,9 C 83 % 1031,8 hPa 0,0 l/m 0 min 0 min 66 W/m 6,4 km/h (2 Bft) 100,00 %
24.09.2018 16:38 11,9 C 9,4 C 8,9 C 84 % 1031,8 hPa 0,0 l/m 0 min 0 min 59 W/m 3,2 km/h (1 Bft) 100,00 %
24.09.2018 16:40 11,8 C 9,4 C 9,4 C 84 % 1031,8 hPa 0,0 l/m 0 min 0 min 55 W/m 6,4 km/h (2 Bft) 100,00 %
24.09.2018 16:42 11,8 C 9,4 C 8,9 C 85 % 1031,7 hPa 0,0 l/m 0 min 0 min 48 W/m 16,1 km/h (3 Bft) 100,00 %
24.09.2018 16:44 11,7 C 9,4 C 8,9 C 85 % 1031,8 hPa 0,0 l/m 0 min 0 min 42 W/m 3,2 km/h (1 Bft) 100,00 %
24.09.2018 16:46 11,6 C 9,4 C 8,9 C 85 % 1031,8 hPa 0,0 l/m 0 min 0 min 42 W/m 3,2 km/h (1 Bft) 95,74 %
24.09.2018 16:48 11,6 C 9,4 C 8,9 C 86 % 1031,7 hPa 0,0 l/m 0 min 0 min 45 W/m 6,4 km/h (2 Bft) 97,83 %
24.09.2018 16:50 11,5 C 10,0 C 8,9 C 86 % 1031,7 hPa 0,0 l/m 0 min 0 min 51 W/m 9,7 km/h (2 Bft) 97,87 %
24.09.2018 16:52 11,4 C 10,6 C 8,9 C 86 % 1031,8 hPa 0,0 l/m 0 min 0 min 96 W/m 9,7 km/h (2 Bft) 97,87 %
24.09.2018 16:54 11,4 C 11,7 C 9,4 C 87 % 1031,7 hPa 0,0 l/m 2 min 0 min 366 W/m 9,7 km/h (2 Bft) 95,74 %
24.09.2018 16:56 11,4 C 11,7 C 9,4 C 87 % 1031,7 hPa 0,0 l/m 2 min 0 min 366 W/m 3,2 km/h (1 Bft) 97,87 %
24.09.2018 16:58 11,4 C 12,2 C 9,4 C 87 % 1031,8 hPa 0,0 l/m 2 min 0 min 361 W/m 6,4 km/h (2 Bft) 97,83 %
24.09.2018 17:00 11,4 C 12,2 C 10,0 C 88 % 1031,8 hPa 0,0 l/m 2 min 0 min 363 W/m 9,7 km/h (2 Bft) 97,87 %
24.09.2018 17:02 11,4 C 12,2 C 10,0 C 88 % 1031,8 hPa 0,0 l/m 2 min 0 min 365 W/m 9,7 km/h (2 Bft) 87,23 %
24.09.2018 17:04 11,5 C 11,7 C 10,0 C 89 % 1031,7 hPa 0,0 l/m 2 min 0 min 360 W/m 9,7 km/h (2 Bft) 93,62 %
24.09.2018 17:06 11,6 C 12,2 C 10,0 C 89 % 1031,8 hPa 0,0 l/m 2 min 0 min 357 W/m 6,4 km/h (2 Bft) 93,75 %
24.09.2018 17:08 11,6 C 12,2 C 10,0 C 89 % 1031,7 hPa 0,0 l/m 2 min 0 min 344 W/m 9,7 km/h (2 Bft) 93,62 %
24.09.2018 17:10 11,7 C 12,8 C 10,0 C 89 % 1031,7 hPa 0,0 l/m 2 min 0 min 334 W/m 6,4 km/h (2 Bft) 93,48 %
24.09.2018 17:12 11,7 C 12,8 C 10,0 C 90 % 1031,8 hPa 0,0 l/m 2 min 0 min 326 W/m 9,7 km/h (2 Bft) 95,74 %
24.09.2018 17:14 11,8 C 12,8 C 10,0 C 90 % 1031,8 hPa 0,0 l/m 2 min 0 min 322 W/m 16,1 km/h (3 Bft) 95,74 %
24.09.2018 17:16 11,8 C 12,2 C 10,0 C 90 % 1031,9 hPa 0,0 l/m 2 min 0 min 317 W/m 16,1 km/h (3 Bft) 93,62 %
24.09.2018 17:18 11,8 C 12,2 C 10,0 C 90 % 1031,9 hPa 0,0 l/m 2 min 0 min 309 W/m 22,5 km/h (4 Bft) 95,74 %
24.09.2018 17:20 11,9 C 12,2 C 10,0 C 89 % 1031,9 hPa 0,0 l/m 2 min 0 min 274 W/m 16,1 km/h (3 Bft) 95,74 %
24.09.2018 17:22 11,9 C 11,7 C 10,0 C 89 % 1031,9 hPa 0,0 l/m 2 min 0 min 316 W/m 12,9 km/h (3 Bft) 93,48 %
24.09.2018 17:24 12,0 C 11,1 C 10,0 C 89 % 1031,8 hPa 0,0 l/m 0 min 0 min 107 W/m 29,0 km/h (5 Bft) 87,23 %
24.09.2018 17:26 11,9 C 11,1 C 10,0 C 88 % 1031,8 hPa 0,0 l/m 0 min 0 min 72 W/m 22,5 km/h (4 Bft) 91,49 %
24.09.2018 17:28 12,0 C 11,1 C 10,0 C 87 % 1031,8 hPa 0,0 l/m 0 min 0 min 74 W/m 16,1 km/h (3 Bft) 89,36 %
24.09.2018 17:30 12,0 C 11,1 C 10,0 C 87 % 1031,7 hPa 0,0 l/m 0 min 0 min 56 W/m 19,3 km/h (3 Bft) 95,74 %
24.09.2018 17:32 12,0 C 10,6 C 10,0 C 87 % 1031,7 hPa 0,0 l/m 0 min 0 min 51 W/m 19,3 km/h (3 Bft) 93,62 %
24.09.2018 17:34 12,0 C 10,6 C 10,0 C 86 % 1031,7 hPa 0,0 l/m 2 min 0 min 196 W/m 19,3 km/h (3 Bft) 93,48 %
24.09.2018 17:36 12,0 C 10,6 C 10,0 C 86 % 1031,7 hPa 0,0 l/m 2 min 0 min 281 W/m 22,5 km/h (4 Bft) 93,62 %
24.09.2018 17:38 12,0 C 10,6 C 10,0 C 85 % 1031,6 hPa 0,0 l/m 2 min 0 min 278 W/m 22,5 km/h (4 Bft) 97,87 %
24.09.2018 17:40 12,1 C 10,6 C 10,0 C 84 % 1031,6 hPa 0,0 l/m 2 min 0 min 275 W/m 12,9 km/h (3 Bft) 95,74 %
24.09.2018 17:42 12,1 C 10,6 C 10,0 C 84 % 1031,6 hPa 0,0 l/m 2 min 0 min 276 W/m 22,5 km/h (4 Bft) 95,74 %
24.09.2018 17:44 12,1 C 10,6 C 10,0 C 83 % 1031,6 hPa 0,0 l/m 0 min 0 min 70 W/m 25,7 km/h (4 Bft) 97,87 %
24.09.2018 17:46 12,1 C 10,6 C 10,0 C 82 % 1031,7 hPa 0,0 l/m 0 min 0 min 56 W/m 22,5 km/h (4 Bft) 97,83 %
24.09.2018 17:48 12,1 C 10,6 C 10,0 C 81 % 1031,7 hPa 0,0 l/m 0 min 0 min 53 W/m 29,0 km/h (5 Bft) 97,87 %
24.09.2018 17:50 12,1 C 10,6 C 10,0 C 81 % 1031,7 hPa 0,0 l/m 0 min 0 min 46 W/m 19,3 km/h (3 Bft) 95,74 %
24.09.2018 17:52 12,1 C 10,6 C 10,0 C 80 % 1031,7 hPa 0,0 l/m 0 min 0 min 40 W/m 9,7 km/h (2 Bft) 95,83 %
24.09.2018 17:54 12,1 C 10,6 C 10,0 C 80 % 1031,7 hPa 0,0 l/m 0 min 0 min 53 W/m 19,3 km/h (3 Bft) 97,87 %
24.09.2018 17:56 12,1 C 11,1 C 10,0 C 80 % 1031,7 hPa 0,0 l/m 2 min 0 min 162 W/m 12,9 km/h (3 Bft) 95,83 %
24.09.2018 17:58 12,1 C 11,1 C 10,0 C 80 % 1031,8 hPa 0,0 l/m 2 min 0 min 231 W/m 12,9 km/h (3 Bft) 97,87 %
24.09.2018 18:00 12,1 C 11,7 C 10,0 C 80 % 1031,7 hPa 0,0 l/m 2 min 0 min 149 W/m 9,7 km/h (2 Bft) 97,87 %
24.09.2018 18:02 12,1 C 11,7 C 10,0 C 81 % 1031,7 hPa 0,0 l/m 0 min 0 min 66 W/m 12,9 km/h (3 Bft) 97,87 %
24.09.2018 18:04 12,1 C 11,7 C 10,0 C 81 % 1031,7 hPa 0,0 l/m 0 min 0 min 72 W/m 16,1 km/h (3 Bft) 97,87 %
24.09.2018 18:06 12,1 C 11,7 C 10,0 C 81 % 1031,8 hPa 0,0 l/m 0 min 0 min 83 W/m 12,9 km/h (3 Bft) 97,87 %
24.09.2018 18:08 12,1 C 11,7 C 10,0 C 81 % 1031,8 hPa 0,0 l/m 0 min 0 min 57 W/m 3,2 km/h (1 Bft) 97,83 %
24.09.2018 18:10 12,1 C 11,7 C 10,0 C 81 % 1031,8 hPa 0,0 l/m 2 min 0 min 129 W/m 9,7 km/h (2 Bft) 100,00 %
24.09.2018 18:12 12,1 C 11,7 C 10,0 C 81 % 1031,8 hPa 0,0 l/m 2 min 0 min 185 W/m 9,7 km/h (2 Bft) 97,87 %
24.09.2018 18:14 12,0 C 11,7 C 10,0 C 81 % 1031,8 hPa 0,0 l/m 2 min 0 min 185 W/m 16,1 km/h (3 Bft) 100,00 %
24.09.2018 18:16 12,0 C 11,7 C 10,0 C 81 % 1031,8 hPa 0,0 l/m 2 min 0 min 179 W/m 12,9 km/h (3 Bft) 100,00 %
24.09.2018 18:18 12,0 C 11,7 C 10,0 C 81 % 1031,9 hPa 0,0 l/m 2 min 0 min 175 W/m 12,9 km/h (3 Bft) 97,87 %
24.09.2018 18:20 12,0 C 11,7 C 10,0 C 81 % 1031,9 hPa 0,0 l/m 2 min 0 min 166 W/m 9,7 km/h (2 Bft) 100,00 %
24.09.2018 18:22 12,0 C 11,7 C 10,0 C 81 % 1031,8 hPa 0,0 l/m 2 min 0 min 158 W/m 12,9 km/h (3 Bft) 97,87 %
24.09.2018 18:24 11,9 C 11,7 C 10,0 C 81 % 1031,8 hPa 0,0 l/m 2 min 0 min 149 W/m 12,9 km/h (3 Bft) 100,00 %
24.09.2018 18:26 11,9 C 11,7 C 10,0 C 81 % 1031,8 hPa 0,0 l/m 2 min 0 min 143 W/m 12,9 km/h (3 Bft) 100,00 %
24.09.2018 18:28 11,9 C 11,7 C 10,0 C 81 % 1032,0 hPa 0,0 l/m 2 min 0 min 140 W/m 12,9 km/h (3 Bft) 95,74 %
24.09.2018 18:30 11,9 C 11,7 C 10,0 C 81 % 1032,0 hPa 0,0 l/m 2 min 0 min 137 W/m 12,9 km/h (3 Bft) 100,00 %
24.09.2018 18:32 11,9 C 11,7 C 10,0 C 81 % 1032,0 hPa 0,0 l/m 2 min 0 min 128 W/m 9,7 km/h (2 Bft) 97,83 %
24.09.2018 18:34 12,0 C 11,7 C 10,0 C 81 % 1032,0 hPa 0,0 l/m 2 min 0 min 103 W/m 9,7 km/h (2 Bft) 100,00 %
24.09.2018 18:36 12,0 C 11,7 C 10,0 C 81 % 1031,9 hPa 0,0 l/m 2 min 0 min 69 W/m 9,7 km/h (2 Bft) 100,00 %
24.09.2018 18:38 12,0 C 11,7 C 10,6 C 81 % 1031,9 hPa 0,0 l/m 0 min 0 min 54 W/m 6,4 km/h (2 Bft) 100,00 %
24.09.2018 18:40 12,0 C 11,7 C 10,6 C 81 % 1032,0 hPa 0,0 l/m 0 min 0 min 54 W/m 9,7 km/h (2 Bft) 100,00 %
24.09.2018 18:42 12,0 C 11,7 C 10,0 C 81 % 1032,1 hPa 0,0 l/m 0 min 0 min 48 W/m 12,9 km/h (3 Bft) 100,00 %
24.09.2018 18:44 12,0 C 11,7 C 10,6 C 81 % 1032,0 hPa 0,0 l/m 0 min 0 min 42 W/m 12,9 km/h (3 Bft) 97,83 %
24.09.2018 18:46 11,9 C 11,7 C 10,6 C 81 % 1032,0 hPa 0,0 l/m 0 min 0 min 35 W/m 22,5 km/h (4 Bft) 100,00 %
24.09.2018 18:48 11,9 C 11,7 C 10,6 C 81 % 1032,1 hPa 0,0 l/m 0 min 0 min 33 W/m 16,1 km/h (3 Bft) 100,00 %
24.09.2018 18:50 11,9 C 11,7 C 10,6 C 80 % 1032,0 hPa 0,0 l/m 0 min 0 min 32 W/m 19,3 km/h (3 Bft) 100,00 %
24.09.2018 18:52 11,9 C 11,7 C 10,6 C 79 % 1032,1 hPa 0,0 l/m 0 min 0 min 32 W/m 12,9 km/h (3 Bft) 97,92 %
24.09.2018 18:54 11,9 C 11,7 C 10,6 C 79 % 1032,2 hPa 0,0 l/m 0 min 0 min 29 W/m 16,1 km/h (3 Bft) 100,00 %
24.09.2018 18:56 11,9 C 11,7 C 10,6 C 79 % 1032,2 hPa 0,0 l/m 0 min 0 min 27 W/m 19,3 km/h (3 Bft) 100,00 %
24.09.2018 18:58 11,9 C 11,7 C 10,6 C 78 % 1032,2 hPa 0,0 l/m 0 min 0 min 25 W/m 12,9 km/h (3 Bft) 100,00 %
24.09.2018 19:00 11,9 C 11,7 C 10,6 C 78 % 1032,3 hPa 0,0 l/m 0 min 0 min 24 W/m 16,1 km/h (3 Bft) 100,00 %
24.09.2018 19:02 11,9 C 11,1 C 10,6 C 78 % 1032,2 hPa 0,0 l/m 0 min 0 min 23 W/m 12,9 km/h (3 Bft) 100,00 %
24.09.2018 19:04 11,9 C 11,1 C 10,6 C 78 % 1032,2 hPa 0,0 l/m 0 min 0 min 20 W/m 9,7 km/h (2 Bft) 100,00 %
24.09.2018 19:06 11,9 C 11,1 C 10,6 C 77 % 1032,3 hPa 0,0 l/m 0 min 0 min 19 W/m 16,1 km/h (3 Bft) 100,00 %
24.09.2018 19:08 11,8 C 11,1 C 10,6 C 77 % 1032,3 hPa 0,0 l/m 0 min 0 min 18 W/m 16,1 km/h (3 Bft) 100,00 %
24.09.2018 19:10 11,8 C 11,1 C 10,6 C 76 % 1032,3 hPa 0,0 l/m 0 min 0 min 16 W/m 16,1 km/h (3 Bft) 100,00 %
24.09.2018 19:12 11,8 C 11,1 C 10,6 C 76 % 1032,3 hPa 0,0 l/m 0 min 0 min 14 W/m 9,7 km/h (2 Bft) 100,00 %
24.09.2018 19:14 11,8 C 11,1 C 10,6 C 76 % 1032,3 hPa 0,0 l/m 0 min 0 min 14 W/m 12,9 km/h (3 Bft) 97,87 %
24.09.2018 19:16 11,7 C 11,1 C 10,6 C 76 % 1032,3 hPa 0,0 l/m 0 min 0 min 12 W/m 12,9 km/h (3 Bft) 97,87 %
24.09.2018 19:18 11,7 C 10,6 C 10,6 C 76 % 1032,3 hPa 0,0 l/m 0 min 0 min 11 W/m 12,9 km/h (3 Bft) 97,83 %
24.09.2018 19:20 11,7 C 10,6 C 10,0 C 76 % 1032,3 hPa 0,0 l/m 0 min 0 min 10 W/m 12,9 km/h (3 Bft) 97,87 %
24.09.2018 19:22 11,7 C 10,6 C 10,0 C 76 % 1032,4 hPa 0,0 l/m 0 min 0 min 9 W/m 12,9 km/h (3 Bft) 95,74 %
24.09.2018 19:24 11,7 C 10,6 C 10,0 C 76 % 1032,4 hPa 0,0 l/m 0 min 0 min 8 W/m 9,7 km/h (2 Bft) 97,87 %
24.09.2018 19:26 11,6 C 10,6 C 10,0 C 76 % 1032,4 hPa 0,0 l/m 0 min 0 min 7 W/m 9,7 km/h (2 Bft) 97,87 %
24.09.2018 19:28 11,6 C 10,6 C 10,0 C 76 % 1032,4 hPa 0,0 l/m 0 min 0 min 6 W/m 6,4 km/h (2 Bft) 95,74 %
24.09.2018 19:30 11,6 C 10,0 C 10,0 C 76 % 1032,4 hPa 0,0 l/m 0 min 0 min 5 W/m 9,7 km/h (2 Bft) 97,83 %
24.09.2018 19:32 11,5 C 10,0 C 10,0 C 76 % 1032,4 hPa 0,0 l/m 0 min 0 min 5 W/m 6,4 km/h (2 Bft) 95,74 %
24.09.2018 19:34 11,5 C 10,0 C 9,4 C 76 % 1032,3 hPa 0,0 l/m 0 min 0 min 3 W/m 9,7 km/h (2 Bft) 97,87 %
24.09.2018 19:36 11,4 C 10,0 C 9,4 C 77 % 1032,4 hPa 0,0 l/m 0 min 0 min 0 W/m 6,4 km/h (2 Bft) 93,62 %
24.09.2018 19:38 11,4 C 9,4 C 9,4 C 77 % 1032,5 hPa 0,0 l/m 0 min 0 min 0 W/m 6,4 km/h (2 Bft) 95,74 %
24.09.2018 19:40 11,4 C 9,4 C 9,4 C 77 % 1032,4 hPa 0,0 l/m 0 min 0 min 0 W/m 3,2 km/h (1 Bft) 95,65 %
24.09.2018 19:42 11,3 C 9,4 C 9,4 C 77 % 1032,5 hPa 0,0 l/m 0 min 0 min 0 W/m 6,4 km/h (2 Bft) 95,74 %
24.09.2018 19:44 11,3 C 9,4 C 9,4 C 77 % 1032,5 hPa 0,0 l/m 0 min 0 min 0 W/m 3,2 km/h (1 Bft) 93,62 %
24.09.2018 19:46 11,2 C 9,4 C 8,9 C 77 % 1032,5 hPa 0,0 l/m 0 min 0 min 0 W/m 3,2 km/h (1 Bft) 95,74 %
24.09.2018 19:48 11,2 C 9,4 C 8,9 C 78 % 1032,6 hPa 0,0 l/m 0 min 0 min 0 W/m 6,4 km/h (2 Bft) 95,74 %
24.09.2018 19:50 11,1 C 9,4 C 8,9 C 78 % 1032,6 hPa 0,0 l/m 0 min 0 min 0 W/m 3,2 km/h (1 Bft) 95,74 %
24.09.2018 19:52 11,1 C 9,4 C 8,9 C 78 % 1032,7 hPa 0,0 l/m 0 min 0 min 0 W/m 3,2 km/h (1 Bft) 95,74 %
24.09.2018 19:54 11,1 C 9,4 C 8,9 C 78 % 1032,7 hPa 0,0 l/m 0 min 0 min 0 W/m 9,7 km/h (2 Bft) 95,74 %
24.09.2018 19:56 11,0 C 9,4 C 8,9 C 78 % 1032,7 hPa 0,0 l/m 0 min 0 min 0 W/m 6,4 km/h (2 Bft) 93,62 %
24.09.2018 19:58 10,9 C 9,4 C 8,9 C 78 % 1032,7 hPa 0,0 l/m 0 min 0 min 0 W/m 6,4 km/h (2 Bft) 95,74 %
24.09.2018 20:00 10,8 C 9,4 C 9,4 C 78 % 1032,7 hPa 0,0 l/m 0 min 0 min 0 W/m 9,7 km/h (2 Bft) 95,74 %
24.09.2018 20:02 10,8 C 9,4 C 9,4 C 78 % 1032,7 hPa 0,0 l/m 0 min 0 min 0 W/m 9,7 km/h (2 Bft) 93,62 %
24.09.2018 20:04 10,7 C 9,4 C 9,4 C 79 % 1032,8 hPa 0,0 l/m 0 min 0 min 0 W/m 9,7 km/h (2 Bft) 93,48 %
24.09.2018 20:06 10,7 C 9,4 C 9,4 C 79 % 1032,9 hPa 0,0 l/m 0 min 0 min 0 W/m 16,1 km/h (3 Bft) 95,83 %
24.09.2018 20:08 10,6 C 9,4 C 9,4 C 79 % 1032,8 hPa 0,0 l/m 0 min 0 min 0 W/m 6,4 km/h (2 Bft) 93,62 %
24.09.2018 20:10 10,6 C 9,4 C 9,4 C 79 % 1032,9 hPa 0,0 l/m 0 min 0 min 0 W/m 6,4 km/h (2 Bft) 97,87 %
24.09.2018 20:12 10,5 C 9,4 C 9,4 C 79 % 1032,9 hPa 0,0 l/m 0 min 0 min 0 W/m 6,4 km/h (2 Bft) 95,74 %
24.09.2018 20:14 10,4 C 9,4 C 9,4 C 79 % 1032,9 hPa 0,0 l/m 0 min 0 min 0 W/m 9,7 km/h (2 Bft) 97,87 %
24.09.2018 20:16 10,4 C 9,4 C 9,4 C 79 % 1033,0 hPa 0,0 l/m 0 min 0 min 0 W/m 9,7 km/h (2 Bft) 97,83 %
24.09.2018 20:18 10,3 C 9,4 C 9,4 C 80 % 1033,1 hPa 0,0 l/m 0 min 0 min 0 W/m 12,9 km/h (3 Bft) 95,74 %
24.09.2018 20:20 10,3 C 9,4 C 9,4 C 80 % 1033,2 hPa 0,0 l/m 0 min 0 min 0 W/m 12,9 km/h (3 Bft) 97,87 %
24.09.2018 20:22 10,3 C 9,4 C 9,4 C 80 % 1033,2 hPa 0,0 l/m 0 min 0 min 0 W/m 6,4 km/h (2 Bft) 97,87 %
24.09.2018 20:24 10,2 C 9,4 C 9,4 C 80 % 1033,2 hPa 0,0 l/m 0 min 0 min 0 W/m 12,9 km/h (3 Bft) 97,87 %
24.09.2018 20:26 10,2 C 9,4 C 9,4 C 80 % 1033,2 hPa 0,0 l/m 0 min 0 min 0 W/m 12,9 km/h (3 Bft) 95,74 %
24.09.2018 20:28 10,2 C 9,4 C 9,4 C 80 % 1033,2 hPa 0,0 l/m 0 min 0 min 0 W/m 9,7 km/h (2 Bft) 97,83 %
24.09.2018 20:30 10,2 C 9,4 C 9,4 C 80 % 1033,2 hPa 0,0 l/m 0 min 0 min 0 W/m 9,7 km/h (2 Bft) 97,87 %
24.09.2018 20:32 10,1 C 9,4 C 9,4 C 80 % 1033,2 hPa 0,0 l/m 0 min 0 min 0 W/m 6,4 km/h (2 Bft) 97,87 %
24.09.2018 20:34 10,1 C 9,4 C 9,4 C 80 % 1033,2 hPa 0,0 l/m 0 min 0 min 0 W/m 12,9 km/h (3 Bft) 97,87 %
24.09.2018 20:36 10,1 C 9,4 C 9,4 C 80 % 1033,2 hPa 0,0 l/m 0 min 0 min 0 W/m 9,7 km/h (2 Bft) 97,87 %
24.09.2018 20:38 10,1 C 9,4 C 9,4 C 80 % 1033,3 hPa 0,0 l/m 0 min 0 min 0 W/m 9,7 km/h (2 Bft) 95,74 %
24.09.2018 20:40 10,1 C 9,4 C 9,4 C 80 % 1033,4 hPa 0,0 l/m 0 min 0 min 0 W/m 12,9 km/h (3 Bft) 97,83 %
24.09.2018 20:42 10,1 C 9,4 C 8,9 C 80 % 1033,4 hPa 0,0 l/m 0 min 0 min 0 W/m 9,7 km/h (2 Bft) 97,87 %
24.09.2018 20:44 10,0 C 8,9 C 8,9 C 80 % 1033,4 hPa 0,0 l/m 0 min 0 min 0 W/m 6,4 km/h (2 Bft) 97,87 %
24.09.2018 20:46 10,0 C 8,9 C 8,9 C 80 % 1033,4 hPa 0,0 l/m 0 min 0 min 0 W/m 3,2 km/h (1 Bft) 97,87 %
24.09.2018 20:48 10,0 C 8,9 C 8,9 C 80 % 1033,4 hPa 0,0 l/m 0 min 0 min 0 W/m 9,7 km/h (2 Bft) 95,74 %
24.09.2018 20:50 9,9 C 8,9 C 8,9 C 81 % 1033,5 hPa 0,0 l/m 0 min 0 min 0 W/m 9,7 km/h (2 Bft) 97,87 %
24.09.2018 20:52 9,9 C 8,9 C 8,9 C 81 % 1033,5 hPa 0,0 l/m 0 min 0 min 0 W/m 9,7 km/h (2 Bft) 97,83 %
24.09.2018 20:54 9,9 C 8,9 C 8,9 C 81 % 1033,6 hPa 0,0 l/m 0 min 0 min 0 W/m 9,7 km/h (2 Bft) 97,87 %
24.09.2018 20:56 9,9 C 8,9 C 8,9 C 81 % 1033,5 hPa 0,0 l/m 0 min 0 min 0 W/m 9,7 km/h (2 Bft) 95,74 %
24.09.2018 20:58 9,9 C 8,9 C 8,9 C 81 % 1033,6 hPa 0,0 l/m 0 min 0 min 0 W/m 16,1 km/h (3 Bft) 100,00 %
24.09.2018 21:00 9,8 C 8,9 C 8,9 C 81 % 1033,6 hPa 0,0 l/m 0 min 0 min 0 W/m 6,4 km/h (2 Bft) 97,87 %
24.09.2018 21:02 9,8 C 8,9 C 8,9 C 81 % 1033,7 hPa 0,0 l/m 0 min 0 min 0 W/m 6,4 km/h (2 Bft) 97,83 %
24.09.2018 21:04 9,8 C 8,9 C 8,9 C 81 % 1033,7 hPa 0,0 l/m 0 min 0 min 0 W/m 3,2 km/h (1 Bft) 97,87 %
24.09.2018 21:06 9,8 C 8,9 C 8,9 C 81 % 1033,8 hPa 0,0 l/m 0 min 0 min 0 W/m 6,4 km/h (2 Bft) 97,87 %
24.09.2018 21:08 9,8 C 8,9 C 8,9 C 81 % 1033,8 hPa 0,0 l/m 0 min 0 min 0 W/m 6,4 km/h (2 Bft) 95,74 %
24.09.2018 21:10 9,8 C 8,9 C 8,9 C 81 % 1033,8 hPa 0,0 l/m 0 min 0 min 0 W/m 6,4 km/h (2 Bft) 97,87 %
24.09.2018 21:12 9,7 C 8,3 C 8,9 C 81 % 1033,8 hPa 0,0 l/m 0 min 0 min 0 W/m 3,2 km/h (1 Bft) 95,74 %
24.09.2018 21:14 9,7 C 8,3 C 8,9 C 81 % 1033,8 hPa 0,0 l/m 0 min 0 min 0 W/m 3,2 km/h (1 Bft) 97,83 %
24.09.2018 21:16 9,7 C 8,9 C 8,9 C 82 % 1033,9 hPa 0,0 l/m 0 min 0 min 0 W/m 9,7 km/h (2 Bft) 95,74 %
24.09.2018 21:18 9,7 C 8,9 C 8,9 C 82 % 1033,9 hPa 0,0 l/m 0 min 0 min 0 W/m 9,7 km/h (2 Bft) 100,00 %
24.09.2018 21:20 9,7 C 8,9 C 8,9 C 82 % 1033,8 hPa 0,0 l/m 0 min 0 min 0 W/m 6,4 km/h (2 Bft) 100,00 %
24.09.2018 21:22 9,7 C 8,9 C 8,9 C 82 % 1033,9 hPa 0,0 l/m 0 min 0 min 0 W/m 6,4 km/h (2 Bft) 100,00 %
24.09.2018 21:24 9,7 C 8,9 C 8,9 C 82 % 1033,8 hPa 0,0 l/m 0 min 0 min 0 W/m 3,2 km/h (1 Bft) 97,87 %
24.09.2018 21:26 9,6 C 8,9 C 8,9 C 82 % 1033,8 hPa 0,0 l/m 0 min 0 min 0 W/m 3,2 km/h (1 Bft) 100,00 %
24.09.2018 21:28 9,6 C 8,9 C 8,9 C 82 % 1033,8 hPa 0,0 l/m 0 min 0 min 0 W/m 6,4 km/h (2 Bft) 100,00 %
24.09.2018 21:30 9,6 C 8,9 C 8,9 C 83 % 1033,8 hPa 0,0 l/m 0 min 0 min 0 W/m 3,2 km/h (1 Bft) 100,00 %
24.09.2018 21:32 9,6 C 8,9 C 8,9 C 83 % 1033,8 hPa 0,0 l/m 0 min 0 min 0 W/m 6,4 km/h (2 Bft) 95,74 %
24.09.2018 21:34 9,6 C 8,9 C 8,9 C 83 % 1033,8 hPa 0,0 l/m 0 min 0 min 0 W/m 3,2 km/h (1 Bft) 95,74 %
24.09.2018 21:36 9,6 C 8,9 C 8,3 C 83 % 1033,8 hPa 0,0 l/m 0 min 0 min 0 W/m 3,2 km/h (1 Bft) 95,74 %
24.09.2018 21:38 9,6 C 8,9 C 8,3 C 83 % 1033,8 hPa 0,0 l/m 0 min 0 min 0 W/m 0,0 km/h (0 Bft) 97,83 %
24.09.2018 21:40 9,6 C 8,3 C 8,3 C 83 % 1033,9 hPa 0,0 l/m 0 min 0 min 0 W/m 0,0 km/h (0 Bft) 97,87 %
24.09.2018 21:42 9,6 C 8,3 C 8,3 C 83 % 1033,9 hPa 0,0 l/m 0 min 0 min 0 W/m 3,2 km/h (1 Bft) 93,62 %
24.09.2018 21:44 9,6 C 8,3 C 8,3 C 83 % 1033,9 hPa 0,0 l/m 0 min 0 min 0 W/m 3,2 km/h (1 Bft) 100,00 %
24.09.2018 21:46 9,6 C 8,3 C 8,3 C 83 % 1034,0 hPa 0,0 l/m 0 min 0 min 0 W/m 6,4 km/h (2 Bft) 100,00 %
24.09.2018 21:48 9,6 C 8,3 C 8,3 C 83 % 1034,0 hPa 0,0 l/m 0 min 0 min 0 W/m 3,2 km/h (1 Bft) 97,87 %
24.09.2018 21:50 9,5 C 8,3 C 8,3 C 83 % 1033,9 hPa 0,0 l/m 0 min 0 min 0 W/m 6,4 km/h (2 Bft) 95,74 %
24.09.2018 21:52 9,5 C 8,3 C 8,3 C 83 % 1034,0 hPa 0,0 l/m 0 min 0 min 0 W/m 3,2 km/h (1 Bft) 97,87 %
24.09.2018 21:54 9,5 C 8,3 C 8,3 C 84 % 1033,9 hPa 0,0 l/m 0 min 0 min 0 W/m 3,2 km/h (1 Bft) 97,87 %
24.09.2018 21:56 9,4 C 8,3 C 8,3 C 84 % 1034,0 hPa 0,0 l/m 0 min 0 min 0 W/m 3,2 km/h (1 Bft) 93,48 %
24.09.2018 21:58 9,4 C 8,3 C 7,8 C 84 % 1034,0 hPa 0,0 l/m 0 min 0 min 0 W/m 3,2 km/h (1 Bft) 95,74 %
24.09.2018 22:00 9,4 C 7,8 C 7,8 C 84 % 1034,0 hPa 0,0 l/m 0 min 0 min 0 W/m 0,0 km/h (0 Bft) 97,87 %
24.09.2018 22:02 9,4 C 7,8 C 7,8 C 84 % 1034,0 hPa 0,0 l/m 0 min 0 min 0 W/m 0,0 km/h (0 Bft) 97,96 %
24.09.2018 22:04 9,4 C 7,8 C 7,8 C 84 % 1034,0 hPa 0,0 l/m 0 min 0 min 0 W/m 0,0 km/h (0 Bft) 97,87 %
24.09.2018 22:06 9,3 C 7,8 C 7,8 C 84 % 1034,0 hPa 0,0 l/m 0 min 0 min 0 W/m 3,2 km/h (1 Bft) 97,83 %
24.09.2018 22:08 9,3 C 7,8 C 7,2 C 83 % 1034,0 hPa 0,0 l/m 0 min 0 min 0 W/m 0,0 km/h (0 Bft) 97,87 %
24.09.2018 22:10 9,3 C 7,8 C 7,2 C 83 % 1034,0 hPa 0,0 l/m 0 min 0 min 0 W/m 3,2 km/h (1 Bft) 95,74 %
24.09.2018 22:12 9,2 C 7,8 C 7,2 C 83 % 1034,1 hPa 0,0 l/m 0 min 0 min 0 W/m 3,2 km/h (1 Bft) 97,87 %
24.09.2018 22:14 9,2 C 7,8 C 7,2 C 83 % 1034,1 hPa 0,0 l/m 0 min 0 min 0 W/m 0,0 km/h (0 Bft) 95,74 %
24.09.2018 22:16 9,2 C 7,2 C 7,2 C 83 % 1034,1 hPa 0,0 l/m 0 min 0 min 0 W/m 3,2 km/h (1 Bft) 93,75 %
24.09.2018 22:18 9,2 C 7,2 C 7,2 C 83 % 1034,1 hPa 0,0 l/m 0 min 0 min 0 W/m 0,0 km/h (0 Bft) 95,65 %
24.09.2018 22:20 9,1 C 7,2 C 7,2 C 84 % 1034,1 hPa 0,0 l/m 0 min 0 min 0 W/m 0,0 km/h (0 Bft) 91,49 %
24.09.2018 22:22 9,1 C 7,2 C 7,2 C 84 % 1034,1 hPa 0,0 l/m 0 min 0 min 0 W/m 3,2 km/h (1 Bft) 95,74 %
24.09.2018 22:24 9,0 C 7,2 C 7,2 C 84 % 1034,2 hPa 0,0 l/m 0 min 0 min 0 W/m 6,4 km/h (2 Bft) 93,62 %
24.09.2018 22:26 8,9 C 7,2 C 7,2 C 84 % 1034,2 hPa 0,0 l/m 0 min 0 min 0 W/m 6,4 km/h (2 Bft) 95,74 %
24.09.2018 22:28 8,9 C 7,2 C 7,2 C 84 % 1034,2 hPa 0,0 l/m 0 min 0 min 0 W/m 3,2 km/h (1 Bft) 97,87 %
24.09.2018 22:30 8,9 C 7,2 C 7,2 C 84 % 1034,3 hPa 0,0 l/m 0 min 0 min 0 W/m 3,2 km/h (1 Bft) 97,83 %
24.09.2018 22:32 8,8 C 7,2 C 7,2 C 84 % 1034,3 hPa 0,0 l/m 0 min 0 min 0 W/m 3,2 km/h (1 Bft) 97,96 %
24.09.2018 22:34 8,8 C 7,2 C 7,2 C 84 % 1034,3 hPa 0,0 l/m 0 min 0 min 0 W/m 0,0 km/h (0 Bft) 97,87 %
24.09.2018 22:36 8,7 C 7,2 C 7,2 C 84 % 1034,4 hPa 0,0 l/m 0 min 0 min 0 W/m 0,0 km/h (0 Bft) 97,83 %
24.09.2018 22:38 8,7 C 7,2 C 6,7 C 84 % 1034,4 hPa 0,0 l/m 0 min 0 min 0 W/m 0,0 km/h (0 Bft) 95,74 %
24.09.2018 22:40 8,7 C 6,7 C 6,7 C 84 % 1034,4 hPa 0,0 l/m 0 min 0 min 0 W/m 0,0 km/h (0 Bft) 97,87 %
24.09.2018 22:42 8,6 C 6,7 C 6,7 C 84 % 1034,3 hPa 0,0 l/m 0 min 0 min 0 W/m 3,2 km/h (1 Bft) 95,74 %
24.09.2018 22:44 8,6 C 7,2 C 6,7 C 84 % 1034,3 hPa 0,0 l/m 0 min 0 min 0 W/m 0,0 km/h (0 Bft) 97,87 %
24.09.2018 22:46 8,6 C 7,2 C 6,7 C 84 % 1034,4 hPa 0,0 l/m 0 min 0 min 0 W/m 3,2 km/h (1 Bft) 97,83 %
24.09.2018 22:48 8,5 C 7,2 C 6,7 C 84 % 1034,5 hPa 0,0 l/m 0 min 0 min 0 W/m 0,0 km/h (0 Bft) 97,87 %
24.09.2018 22:50 8,4 C 7,2 C 7,2 C 84 % 1034,5 hPa 0,0 l/m 0 min 0 min 0 W/m 3,2 km/h (1 Bft) 97,87 %
24.09.2018 22:52 8,4 C 7,2 C 7,2 C 85 % 1034,4 hPa 0,0 l/m 0 min 0 min 0 W/m 0,0 km/h (0 Bft) 97,87 %
24.09.2018 22:54 8,4 C 7,2 C 7,2 C 85 % 1034,5 hPa 0,0 l/m 0 min 0 min 0 W/m 0,0 km/h (0 Bft) 95,74 %
24.09.2018 22:56 8,3 C 7,2 C 6,7 C 85 % 1034,5 hPa 0,0 l/m 0 min 0 min 0 W/m 0,0 km/h (0 Bft) 97,87 %
24.09.2018 22:58 8,3 C 7,2 C 7,2 C 85 % 1034,5 hPa 0,0 l/m 0 min 0 min 0 W/m 3,2 km/h (1 Bft) 97,83 %
24.09.2018 23:00 8,3 C 7,2 C 7,2 C 85 % 1034,6 hPa 0,0 l/m 0 min 0 min 0 W/m 3,2 km/h (1 Bft) 97,22 %
24.09.2018 23:02 8,3 C 7,2 C 7,2 C 85 % 1034,6 hPa 0,0 l/m 0 min 0 min 0 W/m 0,0 km/h (0 Bft) 95,74 %
24.09.2018 23:04 8,2 C 7,2 C 7,2 C 85 % 1034,6 hPa 0,0 l/m 0 min 0 min 0 W/m 0,0 km/h (0 Bft) 97,87 %
24.09.2018 23:06 8,2 C 7,2 C 7,2 C 86 % 1034,6 hPa 0,0 l/m 0 min 0 min 0 W/m 0,0 km/h (0 Bft) 97,92 %
24.09.2018 23:08 8,2 C 7,2 C 7,2 C 86 % 1034,6 hPa 0,0 l/m 0 min 0 min 0 W/m 0,0 km/h (0 Bft) 97,87 %
24.09.2018 23:10 8,2 C 7,2 C 7,2 C 86 % 1034,6 hPa 0,0 l/m 0 min 0 min 0 W/m 0,0 km/h (0 Bft) 100,00 %
24.09.2018 23:12 8,2 C 7,2 C 7,2 C 86 % 1034,6 hPa 0,0 l/m 0 min 0 min 0 W/m 0,0 km/h (0 Bft) 100,00 %
24.09.2018 23:14 8,1 C 7,2 C 7,2 C 86 % 1034,7 hPa 0,0 l/m 0 min 0 min 0 W/m 0,0 km/h (0 Bft) 100,00 %
24.09.2018 23:16 8,1 C 7,2 C 7,2 C 86 % 1034,7 hPa 0,0 l/m 0 min 0 min 0 W/m 0,0 km/h (0 Bft) 97,87 %
24.09.2018 23:18 8,1 C 7,2 C 7,2 C 87 % 1034,7 hPa 0,0 l/m 0 min 0 min 0 W/m 3,2 km/h (1 Bft) 100,00 %
24.09.2018 23:20 8,1 C 7,2 C 7,2 C 87 % 1034,7 hPa 0,0 l/m 0 min 0 min 0 W/m 3,2 km/h (1 Bft) 100,00 %
24.09.2018 23:22 8,1 C 7,2 C 7,2 C 87 % 1034,6 hPa 0,0 l/m 0 min 0 min 0 W/m 3,2 km/h (1 Bft) 100,00 %
24.09.2018 23:24 8,1 C 7,2 C 7,2 C 87 % 1034,6 hPa 0,0 l/m 0 min 0 min 0 W/m 3,2 km/h (1 Bft) 100,00 %
24.09.2018 23:26 8,1 C 7,2 C 7,2 C 87 % 1034,7 hPa 0,0 l/m 0 min 0 min 0 W/m 6,4 km/h (2 Bft) 100,00 %
24.09.2018 23:28 8,1 C 7,2 C 7,2 C 87 % 1034,7 hPa 0,0 l/m 0 min 0 min 0 W/m 0,0 km/h (0 Bft) 100,00 %
24.09.2018 23:30 8,0 C 7,2 C 7,2 C 88 % 1034,7 hPa 0,0 l/m 0 min 0 min 0 W/m 3,2 km/h (1 Bft) 100,00 %
24.09.2018 23:32 8,0 C 7,2 C 7,2 C 88 % 1034,8 hPa 0,0 l/m 0 min 0 min 0 W/m 3,2 km/h (1 Bft) 100,00 %
24.09.2018 23:34 8,0 C 7,2 C 7,2 C 88 % 1034,8 hPa 0,0 l/m 0 min 0 min 0 W/m 0,0 km/h (0 Bft) 97,87 %
24.09.2018 23:36 8,0 C 7,2 C 7,2 C 88 % 1034,8 hPa 0,0 l/m 0 min 0 min 0 W/m 3,2 km/h (1 Bft) 100,00 %
24.09.2018 23:38 8,0 C 7,2 C 7,2 C 88 % 1034,8 hPa 0,0 l/m 0 min 0 min 0 W/m 0,0 km/h (0 Bft) 100,00 %
24.09.2018 23:40 7,9 C 6,7 C 7,2 C 88 % 1034,8 hPa 0,0 l/m 0 min 0 min 0 W/m 0,0 km/h (0 Bft) 97,87 %
24.09.2018 23:42 7,9 C 6,7 C 6,7 C 88 % 1034,9 hPa 0,0 l/m 0 min 0 min 0 W/m 0,0 km/h (0 Bft) 97,87 %
24.09.2018 23:44 7,9 C 6,7 C 6,7 C 88 % 1034,9 hPa 0,0 l/m 0 min 0 min 0 W/m 0,0 km/h (0 Bft) 100,00 %
24.09.2018 23:46 7,9 C 6,7 C 6,7 C 88 % 1034,9 hPa 0,0 l/m 0 min 0 min 0 W/m 0,0 km/h (0 Bft) 97,87 %
24.09.2018 23:48 7,9 C 6,7 C 6,7 C 88 % 1034,9 hPa 0,0 l/m 0 min 0 min 0 W/m 0,0 km/h (0 Bft) 97,83 %
24.09.2018 23:50 7,9 C 6,7 C 6,7 C 88 % 1034,9 hPa 0,0 l/m 0 min 0 min 0 W/m 0,0 km/h (0 Bft) 95,74 %
24.09.2018 23:52 7,8 C 6,7 C 6,7 C 88 % 1034,9 hPa 0,0 l/m 0 min 0 min 0 W/m 3,2 km/h (1 Bft) 100,00 %
24.09.2018 23:54 7,8 C 6,7 C 6,7 C 88 % 1035,1 hPa 0,0 l/m 0 min 0 min 0 W/m 0,0 km/h (0 Bft) 100,00 %
24.09.2018 23:56 7,8 C 6,7 C 6,7 C 88 % 1035,0 hPa 0,0 l/m 0 min 0 min 0 W/m 0,0 km/h (0 Bft) 100,00 %
24.09.2018 23:58 7,8 C 6,7 C 6,7 C 88 % 1035,0 hPa 0,0 l/m 0 min 0 min 0 W/m 0,0 km/h (0 Bft) 97,87 %
_ Min-Zeit 07:18 06:08 06:12 14:14 00:00 - - - - 00:04 17:02
Minimum _ 6,3 C 5,6 C 6,1 C 67 % 1021,4 hPa - - - - 0,0 km/h (0 Bft) 87,23 %
_ Max-Zeit 12:18 12:12 13:58 00:00 23:54 16:12 09:46 12:24 13:58 14:14 01:30
Maximum _ 15,1 C 22,2 C 13,9 C 98 % 1035,1 hPa 0,6 l/m 2 min 2 min 803 W/m 45,1 km/h
W-NW (6 Bft)
100,00 %
Durchschnitt _ 9,8 C 9,6 C 8,8 C 88 % 1029,9 hPa #1,4 l/m #4:02 h #54 min. 187 W/m 7,6 km/h (2 Bft) 97,46 %
© 2018 W. Hausmann